ECMWFFLT2_925_thetae_057.txt.gz
Theta_e
337 338 338 338 338 338 338 339 339 339 338 337 337 338 339 339 339 338 338 339 338 337 338 338 337 336 336 337 338 337 338 337 336 335 335 334 332 332 332 333 332 330 330 331 332 332 332 332 332 333 334 335 334 332 332 331 330 327 322 323 327 328
338 339 337 337 336 335 337 338 338 338 337 337 338 338 339 340 341 339 338 338 337 336 336 335 334 334 335 337 337 337 338 337 335 335 335 334 332 332 331 332 333 331 330 331 332 331 332 333 334 334 334 335 334 332 331 331 331 327 322 324 327 328
338 338 335 334 333 333 335 336 337 337 336 337 338 339 340 341 341 339 338 338 338 336 335 333 333 333 334 335 336 337 337 335 334 334 334 334 333 332 331 331 332 332 331 330 331 332 333 334 335 335 335 335 334 332 331 331 330 325 323 326 327 327
335 335 332 331 332 333 332 334 336 337 337 338 339 339 340 340 340 339 339 338 338 337 335 334 334 334 334 334 335 336 336 334 333 333 333 333 333 332 332 331 331 333 333 332 331 332 333 334 335 336 336 335 333 330 330 330 328 323 323 327 328 327
338 336 331 330 331 331 331 334 336 336 336 338 339 339 339 340 339 339 338 338 338 338 336 336 337 337 335 333 334 335 335 333 331 331 332 333 333 332 331 331 330 331 334 335 335 334 334 335 334 335 337 335 331 330 330 330 328 323 321 325 328 328
339 339 334 331 330 329 332 334 335 335 335 338 339 339 339 339 338 337 336 337 338 339 337 337 338 337 335 334 334 335 335 332 329 329 331 332 332 332 331 331 330 330 333 335 336 336 336 336 335 334 337 335 331 331 330 330 329 325 323 325 327 327
339 339 334 330 329 330 333 334 335 336 336 338 339 338 338 338 337 336 336 337 338 338 338 337 338 336 335 334 334 334 332 329 328 328 330 330 330 330 331 331 330 331 332 333 334 336 335 336 336 335 336 334 332 332 331 330 329 327 326 326 326 326
339 337 333 330 329 331 334 335 337 338 338 338 339 338 338 337 337 336 337 338 338 338 337 336 337 335 335 335 332 331 330 328 328 329 329 329 328 329 330 330 331 331 332 332 333 335 334 334 335 335 335 334 332 332 332 331 330 329 327 327 327 326
339 337 333 330 329 332 336 337 339 340 339 339 339 339 338 337 337 335 337 338 338 337 336 336 336 335 335 335 334 332 331 330 331 331 331 332 331 330 330 331 332 331 331 331 332 334 335 333 333 334 335 333 332 333 333 332 331 331 328 327 328 326
339 337 333 330 330 335 338 338 339 340 339 339 339 339 338 337 336 335 336 336 337 337 335 334 335 335 335 335 336 335 333 332 332 332 333 334 333 332 332 332 332 331 331 332 332 333 334 332 332 333 334 332 331 333 333 332 332 332 329 327 328 327
339 336 332 330 332 336 337 337 339 340 339 339 339 338 338 337 336 336 335 335 336 336 334 333 334 335 335 335 336 335 334 333 333 334 333 334 333 332 333 332 332 332 332 332 332 333 333 331 331 333 332 330 331 333 333 332 332 332 329 327 328 327
339 336 334 334 335 336 336 336 338 340 339 338 338 337 337 337 336 336 336 335 335 335 334 333 334 334 334 335 335 335 334 334 334 333 332 333 333 333 333 332 332 333 333 332 332 334 333 331 333 333 331 330 331 332 332 332 332 332 330 327 327 328
339 337 337 337 337 336 336 337 338 338 339 338 337 337 337 336 336 336 336 335 334 335 334 333 333 333 333 335 335 335 335 335 334 333 334 335 334 334 334 333 333 334 334 333 333 335 334 332 333 333 331 330 331 331 332 332 332 332 331 329 328 327
339 338 338 337 336 337 338 338 337 337 338 339 338 337 336 336 336 336 335 334 333 334 334 333 333 333 333 335 336 336 335 335 334 334 335 336 335 335 335 335 335 335 334 332 332 334 333 332 332 332 332 331 331 331 331 333 332 332 332 330 328 328
339 338 338 336 337 338 339 339 339 338 339 339 338 338 336 336 336 336 335 334 333 333 334 334 334 334 334 335 335 336 336 335 334 335 335 335 335 335 335 335 335 334 333 332 332 333 333 332 331 332 332 330 330 330 331 332 332 332 332 331 330 329
339 339 339 337 338 339 339 339 340 339 339 338 337 337 337 336 336 336 335 334 333 333 334 334 333 333 333 333 335 336 336 335 335 335 335 335 335 335 335 335 335 334 333 332 332 333 333 332 332 332 331 330 331 330 330 331 332 332 332 332 331 330
339 340 340 339 339 339 338 339 339 338 337 336 335 337 338 337 336 335 335 334 333 333 334 334 332 332 333 333 334 335 336 336 336 335 334 335 336 335 335 334 334 333 333 332 331 333 334 332 331 331 331 331 331 331 330 331 332 332 332 332 331 331
340 340 339 339 339 338 338 338 338 337 336 336 335 336 337 337 336 334 334 333 334 334 334 333 332 332 333 333 334 334 336 336 335 335 335 336 336 335 335 334 334 333 333 332 331 333 333 332 331 331 332 332 332 331 331 331 331 331 331 332 331 330
340 339 337 337 337 337 338 337 338 337 336 335 335 336 337 337 336 335 334 334 335 335 333 332 333 333 333 334 333 333 334 335 335 335 335 336 335 334 334 335 334 333 332 332 332 333 334 332 331 332 332 332 332 331 331 331 331 330 330 331 330 330
340 339 336 335 335 336 337 337 337 337 336 336 336 335 336 336 336 336 335 335 335 334 333 333 333 333 334 334 333 333 333 334 336 336 335 335 334 333 334 335 335 333 332 332 333 334 334 332 331 332 332 331 331 331 331 330 330 330 330 329 330 330
341 338 335 333 334 335 336 336 336 336 335 336 335 335 335 335 336 335 334 334 334 334 334 334 334 334 334 333 333 333 334 335 336 336 335 335 334 334 335 335 335 334 333 332 333 333 332 331 331 331 331 331 331 331 331 331 330 330 330 329 329 329
340 336 334 333 334 335 336 336 336 335 334 334 334 334 335 335 335 334 333 334 334 335 334 334 335 335 334 333 333 333 334 335 336 335 335 335 334 335 335 335 335 334 333 332 332 332 332 331 332 331 330 330 330 330 330 330 330 330 329 330 329 329
338 335 335 334 333 335 335 336 336 335 334 334 333 334 335 335 335 334 334 334 335 335 334 335 336 335 335 334 334 334 335 335 336 335 334 335 334 334 335 334 335 334 333 333 332 332 332 332 332 331 330 331 330 330 329 329 330 330 329 329 330 329
338 335 335 334 332 335 336 335 336 335 334 334 333 335 336 334 334 333 334 334 334 335 335 336 336 334 335 334 333 334 335 334 335 335 334 334 334 334 335 334 334 334 333 334 334 333 333 332 331 330 331 332 330 330 331 329 328 329 329 329 329 329
338 336 335 333 333 335 336 335 335 335 335 334 334 336 336 334 334 333 334 334 334 335 335 336 336 335 335 334 334 335 335 334 334 335 335 335 334 334 334 333 333 333 333 333 334 333 333 331 330 330 331 332 331 332 332 329 328 329 329 329 330 329
338 336 334 333 333 336 335 334 335 335 334 334 334 336 335 334 334 334 334 334 334 335 335 335 335 336 335 334 335 336 335 334 334 335 336 335 334 334 333 334 334 333 333 333 332 333 333 331 331 331 330 330 332 333 331 328 329 329 328 329 329 329
337 335 334 333 334 335 333 333 335 334 333 334 333 334 334 333 334 334 334 334 335 335 335 335 335 335 335 335 336 337 336 335 334 335 335 334 334 334 334 334 334 333 333 333 332 332 332 331 331 331 330 330 330 329 329 328 329 329 329 330 329 329
337 335 335 333 333 333 333 333 334 334 333 333 333 333 333 333 335 335 335 335 336 336 335 335 334 334 335 335 336 336 336 335 335 334 334 334 334 334 334 334 333 333 333 332 332 332 331 331 331 331 331 331 330 328 328 329 328 328 329 330 329 329
336 336 335 334 332 333 333 333 335 334 333 333 334 333 333 333 334 335 335 336 336 336 336 335 334 334 334 334 335 335 336 336 335 334 333 334 334 333 333 333 333 332 332 332 332 332 332 332 331 331 331 331 331 329 329 329 328 327 328 329 330 328
336 336 336 335 333 333 333 333 334 334 334 334 334 333 333 333 333 335 335 336 336 336 336 334 333 334 334 334 334 335 335 335 335 334 334 334 333 333 333 333 332 332 332 332 332 332 332 332 332 331 331 331 332 331 330 329 329 328 327 328 329 327
337 336 336 335 334 333 332 333 334 334 334 335 335 333 333 333 333 335 335 336 336 336 336 334 334 335 334 334 334 335 335 334 334 334 334 333 332 332 332 333 332 332 332 332 332 332 331 331 331 331 331 331 331 331 330 330 330 329 328 327 328 327
336 336 336 335 334 332 332 333 334 334 334 334 335 334 333 333 334 334 334 336 337 336 336 335 335 334 334 334 334 334 334 333 333 333 332 332 332 331 332 333 333 333 333 333 332 332 331 330 330 331 331 330 330 331 331 330 330 329 328 328 327 327
336 337 336 334 334 332 332 334 335 334 334 334 335 334 333 334 334 334 334 336 336 335 335 334 334 334 333 333 333 333 333 333 333 332 332 332 331 331 332 332 333 333 333 333 332 332 331 330 330 330 331 330 331 332 331 330 329 328 328 328 327 326
337 337 335 333 333 332 332 334 335 334 333 333 334 334 333 334 335 334 335 336 336 335 335 334 334 334 333 333 333 333 333 332 332 332 332 332 332 332 332 333 333 333 333 332 332 332 332 332 331 330 331 331 331 331 331 330 329 328 328 327 327 326
337 337 335 333 332 333 333 335 335 334 333 332 333 334 334 334 335 334 335 335 335 334 334 334 333 333 333 332 332 332 332 331 331 331 332 332 332 332 332 333 334 333 332 332 332 332 332 332 332 331 331 330 330 330 330 330 330 330 329 328 327 327
337 337 336 334 333 333 334 334 334 334 333 332 332 333 333 334 335 335 335 334 334 333 333 332 332 332 332 331 331 331 330 330 331 331 331 331 331 332 333 333 333 333 332 332 332 332 332 332 332 332 331 330 330 329 329 330 331 331 329 328 327 327
336 337 337 335 334 333 333 333 333 333 333 333 332 332 332 334 335 335 334 334 333 333 332 332 332 332 331 330 330 330 329 330 330 330 330 330 330 331 332 333 333 333 332 332 332 332 332 332 332 332 331 330 331 330 329 330 330 331 330 328 327 327

ECMWFFLT2_925_thetae_060.txt.gz
Theta_e
330 332 335 337 338 338 337 335 335 337 338 337 335 334 332 334 337 339 338 338 338 338 337 336 336 336 336 338 338 337 335 335 335 333 332 331 332 331 329 326 323 326 330 331 332 332 334 336 337 335 333 331 331 330 327 324 322 322 324 327 327 327
327 331 332 333 336 338 337 336 337 338 339 337 335 336 334 335 337 339 339 338 338 338 337 337 336 336 336 337 337 336 335 335 334 333 332 331 332 331 329 329 326 326 330 332 332 333 335 336 336 336 334 331 330 330 327 325 322 321 324 327 327 328
335 335 334 335 337 338 338 338 338 338 339 337 336 337 336 336 336 338 339 338 338 337 337 337 336 335 335 336 336 335 335 335 334 333 332 331 331 332 330 329 330 330 331 332 332 334 335 336 336 335 334 331 331 330 326 324 321 319 323 326 327 328
340 339 337 338 339 339 340 339 339 339 338 337 337 337 337 337 337 338 338 337 337 337 337 336 335 335 335 336 336 335 334 334 334 333 333 332 331 332 331 330 330 331 331 331 333 334 335 336 336 334 333 332 331 328 325 323 320 318 321 326 328 328
338 338 338 338 338 339 340 339 340 339 338 338 337 337 338 339 339 338 338 337 336 336 335 334 334 334 335 335 335 335 333 333 334 334 333 332 331 331 331 331 329 329 329 331 333 334 335 336 335 333 331 331 329 327 325 323 322 320 321 325 327 327
333 336 338 337 337 338 339 340 340 339 338 338 338 338 339 340 340 338 337 337 336 336 334 333 334 334 334 334 334 334 332 332 333 333 333 332 332 331 330 331 332 332 331 332 333 333 335 337 336 332 330 329 328 328 326 324 324 323 323 325 326 326
333 334 337 337 336 336 338 339 339 339 338 338 339 339 340 341 341 339 337 338 337 335 333 333 335 334 333 332 333 334 333 332 331 331 332 332 332 331 330 331 332 334 333 334 334 335 336 337 336 334 331 329 329 329 327 326 325 325 324 325 325 327
334 333 336 336 335 336 337 338 338 339 339 338 340 340 341 341 340 339 338 338 336 335 334 334 335 335 333 332 333 333 333 330 329 330 331 332 332 331 331 330 331 333 332 333 334 336 337 336 336 335 333 331 330 330 328 327 327 326 326 324 324 327
335 334 334 334 335 336 336 337 339 339 338 339 340 341 340 340 339 339 338 337 336 335 334 335 335 335 334 332 332 331 329 328 328 329 330 330 331 331 331 330 331 331 332 332 332 335 336 335 335 335 333 332 332 331 329 328 328 327 327 325 323 326
335 335 334 334 335 335 335 337 338 339 338 338 340 340 340 340 339 338 337 336 337 336 335 335 335 334 333 332 330 329 329 329 329 330 329 329 329 330 330 330 331 331 331 331 331 333 335 334 334 334 333 332 332 332 331 330 329 327 327 326 323 323
337 337 335 335 335 335 335 337 338 338 337 338 339 339 340 340 338 337 336 336 337 337 336 335 335 334 333 332 332 331 331 331 330 331 332 331 330 331 331 331 331 330 331 331 331 332 334 334 332 333 333 332 331 332 332 330 329 328 327 327 324 323
338 338 337 336 335 334 335 337 339 339 338 338 338 338 338 339 338 336 336 337 337 337 336 335 334 334 334 334 334 333 332 332 332 332 333 333 332 332 332 331 331 331 331 332 331 332 334 333 332 332 332 331 331 332 332 331 330 328 327 327 326 325
339 339 338 336 334 334 335 338 339 340 340 339 338 338 338 338 337 336 336 337 338 337 335 334 334 334 334 335 335 334 333 333 334 333 333 334 333 333 332 332 333 331 331 332 332 333 333 332 332 332 331 330 332 333 332 332 331 328 327 327 326 326
339 339 338 336 333 333 335 337 339 341 340 339 338 338 338 338 337 336 335 336 338 337 335 334 334 334 333 334 335 335 335 334 334 333 333 334 334 333 333 333 334 333 333 332 332 333 333 332 332 331 330 330 331 333 332 332 331 328 328 327 327 327
339 338 337 334 332 332 335 337 338 340 340 339 339 339 338 338 337 336 335 336 337 337 335 333 334 334 333 334 335 334 335 334 334 333 332 334 334 334 334 334 334 333 333 333 333 333 332 332 332 331 330 330 331 332 332 332 331 330 328 328 327 327
339 338 336 334 331 332 335 337 337 339 340 339 339 338 338 337 337 336 336 336 336 336 335 333 334 334 333 334 335 334 334 335 334 334 334 335 334 334 335 334 334 333 332 333 333 332 332 331 331 331 331 330 330 331 332 332 332 331 330 328 327 326
338 337 335 334 334 334 336 336 336 338 339 339 338 338 337 337 337 337 337 337 336 336 335 334 334 333 333 335 335 335 335 335 334 334 334 335 335 335 335 334 333 333 332 332 332 332 331 331 331 331 331 330 330 330 331 332 332 332 331 330 329 327
339 338 337 336 336 336 336 336 337 338 338 339 338 338 338 337 337 337 336 336 336 336 335 334 334 333 333 335 336 335 335 335 334 334 334 335 335 335 335 334 332 332 332 331 332 332 332 331 331 331 330 331 330 330 331 331 331 331 331 331 330 329
339 338 338 336 337 337 337 337 338 338 338 338 338 338 338 337 337 336 336 336 336 335 334 334 334 333 333 334 335 335 335 335 335 335 334 335 336 335 334 334 333 332 331 331 332 332 331 331 331 331 331 331 331 330 331 331 331 331 331 331 331 330
339 338 338 336 337 338 338 339 338 338 337 337 338 338 337 337 337 336 336 336 335 334 334 334 333 332 332 333 334 335 335 335 335 334 334 335 336 335 334 333 333 331 331 332 332 332 331 331 331 331 331 331 331 331 331 330 330 330 331 331 331 330
339 338 337 334 335 337 338 338 337 338 337 336 337 338 337 338 337 337 336 335 335 334 334 334 333 332 332 332 334 335 335 335 335 335 335 335 335 334 334 333 332 331 332 332 332 332 331 331 330 330 330 330 330 330 330 330 329 329 329 330 330 330
339 338 336 334 335 337 337 337 337 337 336 336 336 337 337 338 337 337 336 335 335 335 334 333 333 332 332 333 333 334 335 335 335 336 335 335 334 333 335 334 332 332 332 333 332 332 331 330 330 330 330 330 330 330 330 329 329 329 328 329 329 329
338 337 336 334 335 336 336 336 336 336 336 335 335 335 336 337 337 337 336 335 336 335 334 333 333 333 333 333 333 333 334 335 336 336 335 334 333 334 335 334 331 331 332 332 332 332 331 330 330 330 329 330 330 329 329 329 329 329 328 329 329 329
337 336 336 335 335 335 336 335 335 335 335 335 334 334 335 335 336 336 336 335 335 335 334 334 334 334 334 333 332 333 333 334 336 335 334 334 334 334 335 333 331 331 332 332 331 331 330 330 330 329 330 330 328 329 330 329 328 329 329 329 329 329
335 335 336 336 334 334 335 334 334 334 334 333 333 334 335 335 335 335 335 334 334 335 334 334 335 334 335 333 332 333 333 333 336 335 334 334 334 335 335 334 332 331 332 332 331 330 330 331 330 329 330 330 329 330 330 329 328 329 328 329 329 328
335 335 335 336 334 333 334 334 333 333 333 332 331 333 334 335 335 335 334 333 334 335 334 334 335 335 335 334 333 334 333 333 335 336 334 333 334 334 334 334 333 332 332 332 331 331 331 331 330 329 330 329 330 331 329 327 329 329 328 329 328 328
336 335 335 335 333 333 334 334 334 335 334 332 332 333 334 334 335 335 334 333 334 334 335 335 335 335 335 334 333 334 334 335 336 335 334 334 333 333 334 334 333 333 332 332 332 332 332 331 330 330 330 329 330 330 328 327 328 328 329 329 329 328
337 335 335 335 333 334 335 334 334 335 334 334 333 333 334 335 334 333 333 333 334 334 335 335 335 335 335 334 333 334 335 335 335 335 334 334 334 333 333 333 333 333 333 332 332 332 332 331 330 331 330 330 330 329 327 327 327 327 328 329 329 328
337 336 335 335 334 334 335 335 334 334 334 334 334 334 334 334 333 333 333 333 334 334 335 335 335 335 335 335 334 334 335 335 335 334 334 335 334 333 333 333 333 333 333 333 332 332 331 331 330 330 331 331 329 327 327 327 327 326 327 329 330 328
337 336 336 335 334 334 334 335 335 334 334 334 334 334 334 334 334 334 334 334 334 334 335 335 334 334 335 335 335 335 335 335 335 334 335 334 334 334 333 333 334 333 333 333 332 332 331 331 330 330 330 331 328 327 328 327 326 327 327 327 329 328
335 336 336 335 335 334 334 335 335 334 335 334 333 333 333 334 334 335 335 334 334 335 335 335 334 334 334 334 335 336 336 335 335 335 334 334 333 334 333 333 333 333 332 332 332 332 331 331 331 330 330 330 329 328 328 328 327 327 326 326 327 327
334 335 335 335 335 335 334 335 335 334 334 334 334 333 332 333 334 335 336 335 335 335 334 333 334 334 334 335 335 335 335 335 335 334 333 333 334 333 333 333 333 332 332 332 332 332 331 331 331 330 330 330 330 328 328 329 328 327 327 326 327 326
334 334 335 335 334 334 334 334 333 334 334 334 334 332 332 332 333 335 335 335 336 335 334 332 333 334 334 335 335 334 335 335 335 334 334 334 333 333 333 333 332 332 331 332 332 332 332 331 331 331 331 330 330 329 329 329 328 327 327 326 326 325
335 335 334 334 334 333 333 333 333 334 334 333 334 332 332 332 332 334 334 335 336 335 334 333 333 334 334 334 334 334 335 334 334 334 333 333 333 332 332 332 332 332 332 332 332 332 331 331 331 330 330 330 330 330 330 329 329 328 327 326 326 325
334 334 333 333 333 332 332 333 333 333 334 334 334 333 332 332 332 333 334 335 336 335 335 334 334 334 334 334 333 333 334 333 333 333 332 332 332 332 331 332 332 332 332 333 332 331 331 331 330 330 330 330 330 330 330 330 330 329 328 327 327 326
330 330 330 331 332 332 332 332 333 334 334 334 335 333 332 333 332 333 334 335 335 336 335 334 334 334 333 333 333 333 333 333 333 332 331 331 331 331 331 332 333 333 332 332 332 331 331 331 330 329 330 330 330 330 331 330 330 329 328 328 327 327
329 328 329 330 331 331 331 331 332 334 334 334 334 333 332 333 333 333 334 335 335 336 335 334 334 333 333 333 333 333 332 332 332 332 331 332 331 331 331 332 332 333 333 332 332 331 331 332 331 330 330 330 330 330 330 330 329 328 329 328 327 327

ECMWFFLT2_925_thetae_063.txt.gz
Theta_e
343 343 343 343 342 342 341 339 339 337 335 334 334 332 332 336 338 337 336 336 337 337 336 335 336 337 337 338 336 334 333 331 331 331 330 328 324 322 326 330 331 331 332 333 335 336 335 333 332 332 331 330 326 324 322 322 324 325 326 327 327 327
343 343 343 343 342 342 342 340 339 337 336 335 334 333 332 336 338 338 338 337 338 337 336 334 335 337 337 338 336 334 334 332 331 331 331 329 325 323 328 331 331 332 332 333 335 335 335 334 332 332 331 328 326 325 322 323 324 325 326 327 326 327
343 343 343 343 343 342 341 340 339 337 337 336 335 334 333 337 339 338 338 338 338 337 335 334 334 336 337 337 335 335 334 332 331 331 331 330 326 323 327 331 331 331 332 333 335 335 335 334 332 331 330 329 327 324 322 322 323 324 326 327 327 327
342 342 341 342 342 341 340 340 339 338 338 337 337 335 334 338 339 339 338 338 337 336 335 335 335 336 337 337 335 334 334 333 332 331 331 331 328 324 325 330 331 331 332 334 335 335 334 333 332 331 330 330 327 324 321 321 322 324 326 327 328 328
342 341 340 341 341 340 339 340 339 339 339 338 338 336 336 337 339 339 338 337 337 336 336 336 336 336 336 336 334 334 334 333 332 331 331 331 330 328 326 327 330 331 332 334 335 335 334 333 332 331 331 329 327 324 321 321 322 325 326 327 326 326
341 340 340 341 341 340 340 340 339 339 339 339 338 338 337 337 339 339 338 338 337 337 337 336 336 335 335 335 334 333 333 333 332 331 331 331 330 330 329 328 330 331 332 333 335 335 334 333 332 331 330 328 327 325 323 322 322 325 326 326 325 325
339 339 340 340 341 340 340 340 340 340 340 339 338 338 337 336 338 339 337 337 337 337 336 335 335 335 335 334 333 333 333 333 333 332 331 331 331 330 330 329 330 330 332 334 336 336 335 334 332 331 330 328 327 326 324 323 323 325 325 325 326 327
338 338 339 339 340 340 341 341 340 340 340 338 337 338 338 337 338 338 337 337 336 336 335 333 334 334 334 334 332 332 332 333 333 332 331 331 331 331 330 329 329 330 332 335 334 335 336 335 333 331 330 329 328 326 325 325 325 325 324 324 326 327
338 337 338 339 340 340 341 341 340 340 339 339 338 337 337 338 339 338 337 337 336 335 333 332 333 333 333 333 333 332 332 331 332 332 332 332 331 331 331 332 332 332 333 333 332 334 336 335 333 332 331 331 329 327 326 326 326 325 324 324 326 326
338 337 337 339 340 340 340 340 340 340 339 338 337 337 336 337 339 339 337 337 336 335 333 332 334 334 332 332 333 333 332 330 330 331 331 331 331 330 331 332 333 332 332 332 332 334 336 335 333 332 331 331 330 328 327 327 326 325 324 325 326 327
337 336 336 338 339 339 339 339 338 339 338 337 337 337 336 336 339 339 337 337 337 335 333 333 334 334 333 332 332 332 330 328 328 330 330 331 331 331 330 331 331 331 331 331 331 333 335 335 333 332 331 331 331 329 328 327 326 325 324 324 324 324
338 337 336 337 338 338 337 336 337 337 338 337 337 337 337 337 339 339 338 337 337 335 334 333 334 334 332 331 330 329 328 328 328 329 329 329 330 331 330 330 330 331 330 330 331 332 334 334 332 332 331 331 331 330 330 328 327 326 324 323 321 321
338 337 336 336 336 337 335 335 336 336 337 337 337 337 337 337 339 339 338 337 336 336 335 334 335 334 331 330 330 330 330 329 330 330 330 329 329 330 330 330 330 330 330 331 331 331 333 334 332 331 331 331 331 330 330 329 328 327 325 324 323 323
337 337 336 336 335 335 335 335 335 336 336 336 336 337 337 338 339 338 338 336 336 336 336 334 334 333 332 331 331 331 331 331 332 332 332 331 331 330 331 331 331 331 331 331 331 331 333 333 332 331 330 331 331 330 330 329 328 327 326 325 325 325
336 336 336 336 335 334 334 335 335 335 335 335 335 337 338 338 339 338 337 336 335 336 336 334 334 333 332 333 333 332 332 332 333 332 332 333 332 332 331 331 332 331 331 332 332 332 333 332 331 330 330 331 331 331 331 330 329 327 327 326 326 326
336 336 336 337 335 334 333 334 335 335 334 334 336 337 338 338 339 338 337 336 336 337 336 335 334 334 333 334 334 333 333 333 333 333 333 333 333 333 332 332 333 332 332 332 332 332 332 331 330 329 330 332 332 331 332 331 329 328 327 326 326 326
335 335 337 337 336 334 333 333 335 335 335 336 337 338 338 338 338 338 337 336 336 337 337 335 333 334 333 333 334 334 333 333 334 333 333 334 334 333 332 332 333 333 333 332 332 332 331 330 330 330 330 331 332 332 332 332 330 328 327 327 327 326
336 335 336 337 337 335 333 334 336 336 337 337 338 339 338 338 338 338 337 336 336 336 336 336 334 333 333 333 334 334 334 334 334 333 333 335 334 334 333 333 333 333 333 332 333 332 331 330 330 330 329 329 330 331 332 331 331 330 328 327 327 326
336 336 337 337 337 335 333 334 336 336 338 338 338 338 338 338 338 338 337 336 335 335 335 336 334 333 333 334 334 335 334 334 334 334 335 335 335 334 334 333 333 332 332 332 332 332 331 330 330 329 329 329 329 330 331 331 331 331 330 328 327 327
337 336 337 337 336 335 333 335 336 337 338 338 338 338 338 338 337 337 337 336 336 335 335 335 334 333 333 333 334 335 334 334 334 335 335 335 335 335 334 333 333 332 331 331 331 331 331 330 330 329 329 329 329 330 330 330 330 331 331 330 329 329
337 337 337 337 336 335 335 335 336 337 337 338 337 336 335 336 337 337 337 336 336 336 336 335 334 333 333 333 333 335 335 334 334 334 334 334 335 335 334 333 332 331 331 331 331 330 330 330 329 329 329 329 329 329 329 329 329 330 330 330 330 329
337 337 337 337 336 336 335 336 336 336 337 337 336 334 334 334 336 337 336 336 337 336 336 335 334 333 333 333 333 334 335 335 335 335 334 335 335 335 334 333 332 331 331 331 331 330 330 330 329 329 329 329 329 328 328 328 329 329 329 329 329 329
338 338 337 337 336 336 336 336 336 336 336 336 334 335 335 334 335 336 336 336 336 336 335 334 334 333 333 333 333 334 335 335 335 335 334 335 335 334 333 333 332 331 331 331 330 330 330 330 328 328 329 329 329 328 329 328 328 328 328 328 329 329
338 338 337 336 336 336 336 336 336 336 336 335 333 334 335 335 336 336 336 336 336 335 335 334 334 334 333 332 332 333 334 335 334 334 335 335 335 334 333 333 332 331 331 331 330 330 330 329 328 328 328 328 328 328 329 330 328 328 328 329 328 328
338 337 337 336 335 336 336 336 336 335 334 332 332 333 334 334 335 336 336 336 336 335 335 334 333 333 333 332 332 333 334 335 334 334 335 335 334 333 334 333 332 331 331 331 331 330 330 329 328 328 328 328 328 328 329 329 328 328 328 329 329 328
337 337 338 337 335 335 335 335 335 334 332 330 331 333 333 334 334 335 336 336 335 335 335 334 333 333 333 332 332 332 333 335 335 335 335 334 333 333 334 333 332 331 331 331 331 331 330 329 329 328 327 328 328 328 327 327 329 328 328 328 329 328
336 336 337 337 336 335 335 335 335 334 333 332 333 333 333 333 334 335 335 335 335 335 335 333 332 333 333 332 333 332 333 334 334 335 335 334 333 333 334 334 333 332 331 331 331 331 330 330 329 328 328 328 328 329 327 327 328 328 328 328 328 327
335 335 336 337 336 336 335 335 335 334 334 334 334 334 334 333 334 335 335 335 335 335 335 333 333 334 333 333 333 333 333 333 334 335 335 335 333 333 334 334 333 332 331 331 331 331 330 330 330 329 329 329 330 329 327 326 326 326 327 328 329 327
335 335 336 336 336 336 335 335 335 334 333 334 334 334 334 334 334 334 334 335 335 334 334 334 334 334 333 334 333 333 332 333 334 335 335 334 334 334 334 334 333 332 332 331 331 331 330 330 331 330 329 329 330 328 327 326 326 325 326 328 330 328
335 335 336 336 336 335 334 334 334 334 334 333 333 332 333 333 334 334 335 335 334 334 334 334 335 334 334 334 333 332 333 333 334 335 335 334 333 334 334 334 333 333 332 332 331 331 331 331 331 330 329 330 329 327 326 326 325 326 326 327 329 328
336 335 336 337 335 332 332 333 334 334 334 333 333 332 332 333 334 334 335 334 334 333 333 334 334 334 334 333 332 332 333 334 334 335 335 334 333 334 334 334 334 333 332 332 332 331 331 331 331 331 330 330 329 328 327 326 326 326 326 325 326 327
336 335 336 336 333 330 329 332 333 334 334 333 333 332 333 333 334 334 334 334 333 333 333 333 334 334 333 333 332 332 333 334 335 335 335 334 334 334 333 333 333 333 333 333 332 332 332 331 331 331 330 330 330 328 327 327 327 326 326 325 325 326
334 334 334 331 329 327 328 329 332 334 334 333 333 333 333 333 334 334 334 333 333 333 333 333 334 334 333 333 333 332 332 334 335 335 335 334 334 334 333 333 333 333 333 333 333 332 332 332 331 330 330 330 330 329 327 327 327 326 325 325 325 325
332 333 333 330 327 327 328 328 330 333 333 333 333 333 333 333 333 334 334 334 333 333 333 333 334 334 333 333 333 332 333 334 335 335 334 335 334 333 333 333 333 333 333 333 332 332 331 331 331 331 330 330 330 330 328 327 328 327 326 325 325 324
330 331 332 330 328 328 328 329 330 331 333 333 333 333 333 333 333 333 334 334 334 333 333 334 334 334 333 333 333 333 334 334 335 335 334 334 333 333 333 333 333 333 333 332 332 332 331 331 331 331 330 330 330 330 329 328 328 328 327 326 325 324
329 329 329 328 328 329 329 329 330 331 333 333 333 333 333 333 333 332 333 333 334 334 334 334 334 333 333 333 333 334 334 335 335 335 335 334 333 333 333 332 333 333 332 332 331 331 332 331 331 331 331 330 330 330 330 329 329 329 328 327 326 325
328 328 328 328 328 329 330 330 329 330 332 332 333 333 333 333 333 332 331 332 333 334 334 334 334 333 333 333 333 334 335 335 334 334 334 333 333 333 333 332 332 332 332 331 331 331 332 331 331 331 330 330 330 330 330 330 330 329 329 328 327 326

ECMWFFLT2_925_thetae_069.txt.gz
Theta_e
343 343 342 340 339 339 339 339 338 337 336 335 335 334 333 334 335 334 334 335 337 338 337 336 336 334 331 330 331 334 331 323 319 321 323 325 327 330 332 332 332 332 332 331 331 330 330 329 326 323 321 319 320 323 326 328 329 329 329 329 329 329
344 343 342 341 340 340 339 339 339 338 337 336 336 335 335 335 335 335 335 335 337 337 337 337 336 334 332 331 331 333 333 326 320 320 323 326 329 331 332 333 332 332 332 332 331 330 330 328 326 323 320 319 322 325 326 328 330 329 329 329 329 328
344 343 342 342 340 340 340 340 339 339 338 337 337 336 336 336 335 336 337 336 337 337 337 337 336 335 332 332 331 332 334 328 321 321 325 327 330 332 333 333 333 332 332 332 331 331 331 329 325 323 320 320 323 324 325 328 330 329 330 329 328 327
343 343 343 342 341 341 341 341 340 339 338 338 338 337 337 337 335 336 337 336 336 337 337 336 336 335 332 332 332 332 333 329 324 323 326 328 330 332 334 334 333 333 332 332 331 332 332 329 326 323 321 321 322 324 326 328 329 329 329 329 329 328
342 343 342 342 341 341 342 341 340 339 339 338 338 337 337 337 336 337 338 337 336 337 337 336 337 336 333 334 334 333 334 333 330 328 328 331 331 332 334 334 334 333 333 332 332 331 331 329 327 324 322 322 322 324 327 328 329 329 329 329 328 327
342 342 342 342 342 342 342 341 340 339 339 339 338 337 337 337 337 337 337 337 336 336 336 336 337 337 335 334 335 335 335 334 333 330 330 332 331 331 333 334 334 333 333 332 332 331 330 330 328 326 324 323 323 324 327 329 329 330 329 329 327 326
342 341 342 342 342 342 342 341 340 339 339 339 338 337 336 338 338 337 337 337 336 336 336 336 336 337 336 335 335 335 334 332 332 330 328 329 329 331 332 333 334 333 333 332 331 331 330 330 328 328 326 324 324 325 327 329 329 330 329 329 327 326
341 340 342 342 342 342 342 341 340 339 339 339 338 338 337 337 338 337 337 337 337 336 335 335 336 337 336 336 335 334 333 330 331 331 328 327 329 330 332 333 334 333 333 332 332 331 330 329 328 328 327 325 325 325 327 328 329 329 329 328 328 327
340 341 342 341 342 342 341 341 340 340 339 338 338 338 336 336 338 338 337 337 337 336 335 334 335 336 336 337 336 335 334 331 330 330 329 329 329 330 331 332 333 333 333 332 332 331 330 329 328 328 327 325 326 326 326 327 328 329 329 328 328 326
340 341 341 341 341 341 341 341 340 340 339 338 338 338 336 336 338 338 338 337 337 337 336 334 335 336 336 335 335 335 335 333 330 329 330 329 329 330 331 332 333 334 333 333 332 331 331 330 329 329 328 326 326 326 327 327 328 329 329 328 328 326
340 341 340 340 340 340 340 340 340 340 340 339 338 338 337 337 338 339 338 337 337 337 336 335 335 336 336 334 335 335 336 334 332 330 330 329 329 330 331 333 333 333 333 333 332 331 331 330 329 329 328 327 327 327 329 329 328 329 329 328 328 327
340 340 340 340 339 340 340 340 340 339 339 339 338 338 338 337 337 338 338 337 338 337 336 336 334 334 335 335 335 335 335 335 333 331 331 330 329 329 331 333 331 331 332 333 333 332 331 330 330 329 328 327 327 328 330 330 329 329 329 328 328 328
339 339 340 339 339 339 339 339 340 339 339 339 338 338 338 338 337 337 338 338 338 338 337 337 334 332 334 335 334 335 335 334 333 332 331 331 329 329 330 331 330 329 330 332 333 332 331 331 330 329 328 328 328 329 330 330 329 329 329 328 328 327
338 339 339 339 338 338 339 339 339 338 338 338 338 338 338 338 337 337 338 338 338 338 337 336 335 333 333 334 334 335 335 334 333 331 332 331 330 330 329 329 329 329 330 332 333 332 332 331 330 330 329 329 330 330 331 330 329 329 329 328 327 327
338 338 338 338 337 338 338 338 338 337 337 338 337 338 338 338 337 337 337 338 338 338 337 336 336 334 332 333 334 334 335 334 334 332 331 332 331 331 330 329 329 329 331 332 333 333 333 332 331 331 331 330 330 330 331 330 330 329 329 328 328 327
338 338 338 338 337 337 337 338 338 337 337 337 337 337 338 337 337 336 337 337 338 337 337 337 337 335 332 333 334 334 334 333 333 331 330 330 332 331 330 330 329 329 330 331 332 332 332 332 332 331 331 330 330 331 331 330 330 330 329 328 328 327
337 338 337 338 337 336 336 337 337 336 337 336 336 337 337 337 336 335 336 336 337 337 338 338 337 335 333 334 335 334 332 331 330 329 328 329 331 331 331 330 329 329 329 330 332 332 331 332 332 331 331 330 331 331 331 331 330 330 329 328 328 327
336 337 336 336 337 336 336 336 336 336 336 336 336 336 335 335 335 335 335 335 337 337 338 337 337 336 334 335 334 332 330 330 330 329 329 329 330 331 330 329 329 329 330 330 332 332 331 332 331 331 330 330 330 330 331 331 330 330 329 328 328 328
335 335 334 334 335 336 336 336 336 336 336 335 335 335 334 334 334 335 335 335 337 337 338 338 337 336 335 335 333 330 330 331 331 331 331 331 331 331 331 331 330 330 330 331 331 332 331 331 331 330 330 330 330 330 331 331 330 330 329 328 328 328
334 334 334 332 333 335 336 336 336 336 336 336 335 334 334 334 334 334 334 335 335 336 338 338 337 336 335 335 333 330 330 331 332 332 332 332 333 333 332 332 332 331 331 331 331 330 331 330 330 330 330 330 330 330 331 330 330 330 329 328 328 328
333 334 334 333 333 334 336 336 336 336 336 336 335 334 334 333 333 333 333 333 334 336 338 338 337 336 335 335 333 331 331 331 332 333 333 333 333 333 333 333 333 332 331 331 331 330 330 330 330 330 330 330 330 330 330 330 330 330 330 329 328 328
331 332 333 333 333 334 335 335 335 335 335 335 335 335 335 333 332 331 332 333 334 335 336 336 337 336 335 335 334 332 332 332 333 333 334 333 333 332 333 333 332 332 331 331 331 330 330 331 331 331 330 330 329 330 330 329 329 330 330 329 329 328
332 332 331 333 334 334 334 335 334 334 335 335 335 336 335 334 332 331 331 333 334 335 335 336 336 336 335 335 335 334 333 333 333 333 333 333 332 332 331 331 331 331 330 331 330 329 330 331 331 331 330 330 330 330 329 328 328 329 329 330 329 328
331 331 331 332 334 335 334 334 334 334 334 335 335 335 335 334 333 332 331 332 333 334 335 335 335 335 335 335 335 334 334 334 333 332 333 334 333 331 331 330 330 331 330 330 330 329 330 331 331 331 330 329 329 329 329 329 329 328 328 329 329 328
332 331 331 332 334 335 335 335 334 334 334 334 334 334 334 333 333 333 332 332 333 333 333 333 333 334 334 335 336 335 334 334 333 332 333 334 333 332 331 331 331 331 331 331 331 330 330 330 330 330 330 329 328 328 328 328 328 328 327 328 328 328
333 333 332 333 335 335 336 336 335 335 335 334 334 333 333 333 333 332 332 332 332 332 332 332 333 332 333 334 335 335 335 335 334 333 333 334 333 332 332 332 331 332 332 332 331 330 330 330 330 329 328 328 328 328 329 328 328 328 328 327 328 328
332 333 333 333 335 335 335 335 336 336 335 335 334 333 333 332 332 332 332 331 331 331 331 331 332 332 333 335 335 335 335 335 334 333 333 333 333 332 333 332 331 332 332 332 331 331 331 330 330 329 327 327 327 327 329 329 328 328 328 328 328 328
332 333 333 334 334 335 335 335 335 335 335 335 334 333 332 332 332 332 331 330 330 330 330 330 330 332 333 334 334 335 335 334 334 333 332 333 333 333 332 332 332 331 331 331 331 331 331 330 330 330 328 328 328 328 329 330 329 328 328 328 328 328
331 333 333 334 334 334 335 335 335 335 335 334 333 332 332 331 331 331 331 330 330 330 330 329 330 331 331 331 332 333 334 334 334 333 332 332 333 332 332 332 332 330 330 331 331 330 331 331 331 331 330 329 330 329 329 330 329 329 328 328 327 328
330 331 332 333 334 334 334 335 335 335 335 334 332 331 330 331 330 330 330 329 330 330 330 329 329 329 330 330 330 332 333 334 333 332 331 331 332 332 331 331 332 331 330 331 331 330 330 331 331 332 331 329 329 330 329 330 329 329 329 328 327 327
329 329 331 332 333 334 334 334 334 334 334 333 332 330 330 330 330 330 330 330 330 330 329 329 329 329 329 329 330 332 333 333 333 332 331 331 331 332 332 332 332 332 331 332 331 330 330 331 332 332 331 329 330 330 330 330 330 329 329 329 328 327
328 328 329 330 331 332 332 332 333 332 332 331 330 330 330 330 331 330 330 330 330 330 330 329 330 330 329 329 331 332 332 332 332 332 332 332 331 332 332 332 332 332 332 332 331 330 331 331 332 332 331 329 330 331 331 331 331 330 330 330 329 328
327 327 327 328 329 329 330 330 330 330 330 330 329 329 330 330 330 330 331 331 331 330 330 329 329 330 329 330 331 332 332 332 332 332 332 332 331 331 332 332 332 332 332 332 331 331 331 332 332 331 331 330 330 331 331 331 331 330 330 329 329 328
323 324 325 326 327 327 328 328 328 329 328 329 329 329 329 329 329 330 331 331 331 330 330 330 330 330 330 330 331 331 331 332 332 332 332 332 332 331 331 332 332 331 332 332 332 331 331 332 332 332 331 331 330 330 330 330 330 330 329 329 329 329
318 319 321 324 325 327 328 328 328 328 328 328 328 329 329 329 330 331 331 331 330 330 330 330 330 330 330 331 331 330 331 331 331 331 332 332 332 331 331 331 330 330 331 332 331 331 331 332 332 332 331 330 329 329 329 329 330 330 329 329 329 329
315 316 319 321 323 325 326 328 328 328 328 328 328 329 329 329 330 331 331 331 331 330 331 330 330 330 330 330 330 330 330 331 331 331 331 331 331 331 330 331 330 330 331 331 331 331 331 332 332 331 331 330 330 330 329 329 329 329 329 329 329 329
314 317 319 320 321 323 324 325 326 327 327 328 328 328 329 329 329 330 330 330 330 330 330 330 330 330 330 330 330 330 330 330 331 331 330 330 330 330 330 331 331 331 331 331 331 332 332 332 331 331 330 330 331 331 330 329 329 329 329 328 329 329

ECMWFFLT2_925_thetae_072.txt.gz
Theta_e
344 343 344 345 344 342 336 336 337 335 334 333 335 336 337 336 332 330 332 336 337 339 339 335 335 335 332 332 334 333 330 331 330 326 327 328 328 331 333 333 332 331 331 331 330 329 326 322 320 318 320 327 332 333 333 333 333 333 333 332 331 330
344 344 345 345 345 343 339 339 339 337 336 335 334 334 337 337 334 333 335 338 340 341 340 338 338 336 335 335 334 332 327 328 328 324 326 328 328 332 332 333 332 331 331 331 332 331 329 324 320 319 324 331 332 333 334 334 334 333 333 332 331 329
344 344 345 345 345 344 342 342 343 341 339 339 337 336 339 340 338 338 338 341 342 342 342 341 339 337 336 337 335 333 326 326 328 324 327 329 330 332 332 333 332 331 331 332 335 335 334 330 323 322 329 332 332 334 335 334 334 333 332 332 330 329
345 345 344 345 345 345 344 344 344 343 341 340 340 339 340 340 340 340 341 343 344 343 342 342 340 336 336 336 335 334 327 325 328 326 328 332 332 333 332 333 332 331 333 335 336 336 335 333 329 329 332 332 332 333 334 334 333 333 332 331 330 328
346 346 345 345 345 345 345 345 344 343 342 341 341 341 341 342 342 342 342 342 343 343 342 342 340 336 335 336 336 336 331 329 331 329 330 334 334 334 334 335 333 333 335 337 336 335 334 333 332 332 333 332 333 333 333 333 333 332 332 331 328 327
346 346 346 345 345 345 345 345 344 344 342 341 342 342 342 343 342 342 342 342 343 343 342 341 341 339 337 337 336 336 334 333 333 332 332 334 335 336 336 336 335 335 337 337 336 336 334 333 333 333 332 333 333 333 333 332 331 331 331 330 328 327
346 347 346 345 346 345 345 345 344 344 343 342 342 342 342 343 343 343 342 342 343 342 341 340 341 340 339 337 336 335 335 334 333 333 333 333 335 336 336 336 337 337 336 336 335 335 334 334 334 333 333 333 333 333 332 331 331 330 330 330 328 328
346 346 346 346 346 346 345 345 345 344 343 342 342 341 341 342 343 341 341 342 342 340 339 339 341 341 340 338 336 336 335 335 333 333 332 333 335 335 335 336 337 336 336 335 335 334 334 334 334 334 333 333 333 333 332 331 330 330 330 330 329 327
345 344 345 345 345 345 346 346 345 344 343 342 341 340 339 340 342 341 340 341 340 339 338 338 340 341 340 338 337 336 335 335 334 333 332 332 333 334 335 336 336 336 336 335 335 334 334 334 334 334 333 333 333 333 332 331 330 330 329 330 329 326
343 343 343 344 345 345 345 345 345 344 343 342 340 340 339 339 340 340 340 340 340 339 339 338 338 339 339 338 337 336 335 335 334 333 332 331 332 334 335 336 336 336 335 335 335 334 334 334 334 333 333 333 333 333 332 331 330 330 330 330 329 327
343 343 343 344 344 344 344 344 344 343 342 342 340 340 340 339 339 340 340 341 341 340 340 340 339 339 338 337 338 337 336 336 335 334 332 332 332 333 335 335 336 336 335 335 335 334 334 333 333 333 333 333 333 332 332 331 331 331 330 330 330 328
343 343 343 342 343 343 343 343 343 343 342 342 341 341 340 340 339 339 340 341 341 340 341 340 339 340 339 337 337 337 336 336 335 334 333 332 332 333 334 335 335 335 335 335 335 334 334 334 334 333 334 333 333 332 332 332 331 331 331 330 330 329
342 342 342 342 341 341 342 342 343 342 342 342 341 341 341 340 340 339 339 340 341 340 340 340 337 338 339 338 337 337 336 336 335 334 334 333 333 333 334 334 335 335 335 335 335 335 334 334 334 334 334 333 332 333 333 332 332 332 331 331 330 330
340 340 340 340 340 340 341 341 342 342 341 341 341 341 340 340 339 339 339 340 340 340 340 340 338 338 338 338 337 337 336 336 335 334 335 334 333 332 333 334 334 334 335 335 334 334 334 334 334 334 334 333 332 333 333 332 332 331 331 331 331 330
338 338 337 337 337 338 339 340 340 340 340 341 341 340 340 340 339 339 339 339 340 339 339 339 339 338 337 338 338 337 336 336 335 334 334 334 334 333 332 333 333 333 334 334 334 334 334 334 334 333 333 333 333 333 333 333 332 332 331 331 330 330
336 336 336 336 337 337 337 338 339 339 339 340 340 340 340 340 339 339 339 338 339 339 338 339 338 337 337 338 338 338 337 337 336 335 334 334 334 333 332 333 333 333 334 334 334 334 334 334 334 333 333 333 333 333 333 333 333 332 332 331 332 331
336 336 335 335 336 337 337 337 339 339 339 340 340 340 340 340 339 339 339 338 338 338 338 339 339 338 338 338 338 338 338 337 337 335 334 334 334 333 333 333 333 333 334 333 333 333 334 334 334 333 333 333 332 332 333 334 333 332 332 332 332 331
335 335 334 334 335 337 337 336 338 339 339 340 340 340 340 340 339 338 338 338 338 338 337 338 338 338 339 338 338 338 338 337 336 335 335 335 334 333 333 334 335 334 334 334 333 333 333 333 333 332 332 332 332 333 334 334 333 333 332 332 332 331
335 337 335 333 334 336 337 336 337 338 338 339 339 340 340 339 339 339 338 337 337 337 337 337 338 338 337 338 338 338 338 336 335 335 335 334 334 333 333 335 335 335 335 334 333 333 333 332 332 332 332 332 333 334 334 334 333 333 333 332 332 332
336 337 335 334 335 336 337 337 337 338 338 339 339 339 339 339 339 338 337 337 337 336 336 337 338 337 337 337 338 338 338 336 335 335 335 334 333 332 334 336 335 333 333 333 332 333 332 332 332 332 332 332 333 334 334 333 333 334 333 332 332 332
335 336 335 336 337 337 337 337 337 337 338 339 339 339 338 338 338 337 337 337 337 336 336 336 336 336 336 337 337 336 337 336 336 336 335 334 333 332 334 335 335 333 333 333 332 332 332 332 332 333 333 333 334 334 334 333 333 333 333 332 332 331
336 336 336 337 337 337 337 337 337 338 338 339 339 339 338 338 338 337 336 335 336 335 336 336 336 336 336 337 336 336 336 335 336 337 338 337 336 335 334 335 335 333 333 333 333 333 332 332 333 333 334 333 333 334 334 333 333 332 333 332 331 331
336 335 336 336 336 337 337 337 338 338 339 339 339 338 338 339 338 338 336 335 334 334 334 335 335 335 336 336 336 336 336 334 335 337 338 337 337 337 336 335 334 333 333 333 333 333 332 333 334 333 333 333 333 333 333 333 332 332 332 331 331 332
336 335 336 335 335 336 337 337 337 337 337 338 338 337 338 338 337 337 337 336 335 334 334 333 334 335 335 336 336 336 335 334 335 336 337 337 337 337 337 336 334 333 333 333 333 333 333 334 333 333 333 333 333 333 332 332 332 332 331 332 332 332
335 335 335 335 335 336 337 337 337 337 336 336 337 337 337 337 337 336 336 336 335 334 334 334 334 334 334 335 335 335 335 335 334 335 336 336 336 336 336 335 335 334 334 334 334 334 334 334 333 333 332 332 332 331 332 332 333 332 331 331 332 331
334 334 335 335 336 336 337 336 337 337 336 336 336 336 336 336 336 336 336 335 335 335 334 334 335 334 334 334 334 334 335 335 334 335 336 337 336 335 335 335 335 335 334 335 335 334 334 334 333 333 333 333 333 331 332 333 332 332 331 331 331 331
334 335 335 335 335 336 336 336 336 336 336 336 336 337 336 336 336 336 335 335 335 335 334 334 334 335 334 334 333 333 334 335 335 334 336 336 336 335 335 335 335 335 334 333 334 333 334 334 333 332 333 334 333 331 332 332 332 331 331 331 331 331
333 334 334 334 335 336 336 336 336 336 336 337 337 336 336 336 335 334 334 335 334 334 334 334 333 333 333 333 333 333 333 334 335 335 335 335 335 335 334 334 334 334 334 333 332 333 334 333 332 332 333 333 333 332 332 332 333 332 331 330 331 331
333 333 333 334 334 335 335 335 335 335 335 336 336 335 335 334 334 334 334 334 334 334 333 333 332 331 331 331 332 332 332 333 334 334 335 334 335 334 334 334 333 334 335 334 333 333 333 332 332 333 333 333 333 332 332 332 333 333 331 330 330 331
331 332 333 333 334 334 334 334 334 335 335 336 335 335 334 333 333 333 333 334 334 334 333 333 331 330 330 330 330 331 331 332 333 334 334 334 334 334 333 334 333 334 334 334 334 333 332 332 332 332 332 333 333 333 332 333 333 333 333 332 331 331
327 328 330 332 332 333 333 333 333 333 334 334 334 334 333 333 333 333 334 334 334 334 333 333 332 330 330 330 329 329 330 331 332 333 334 334 334 334 334 334 334 334 334 333 333 332 332 333 332 331 332 333 333 333 332 333 333 333 333 333 331 331
324 325 327 328 330 331 332 332 331 331 332 332 332 333 333 333 333 333 333 333 334 333 333 334 333 331 331 330 330 330 331 331 332 333 334 333 333 333 333 334 334 334 334 333 333 333 333 334 333 331 331 333 333 332 332 332 331 331 332 332 331 331
323 323 324 325 327 329 330 331 330 331 331 331 331 332 332 332 332 333 332 333 334 334 334 334 333 333 332 332 331 331 331 332 333 333 334 333 333 333 333 333 334 334 334 333 333 333 333 333 333 332 332 334 333 332 332 331 331 331 331 332 331 331
321 322 323 324 325 327 328 330 330 331 331 331 331 331 332 332 332 332 332 333 334 334 334 334 333 333 333 333 332 331 331 332 333 333 333 333 333 333 333 333 333 334 333 334 333 333 334 334 335 334 332 333 333 332 332 331 331 332 331 332 332 331
318 320 321 322 323 324 326 328 329 329 330 331 331 331 331 332 332 332 332 332 333 334 335 334 334 333 333 333 333 332 332 332 332 332 332 333 333 333 333 332 333 333 333 333 333 333 335 335 334 334 331 332 333 333 332 331 331 332 331 332 331 330
316 316 317 318 320 321 323 325 327 327 328 330 330 331 331 331 332 332 332 332 332 333 334 334 334 333 333 333 333 332 332 332 332 333 332 332 333 333 332 332 332 332 333 333 333 333 334 334 334 333 331 332 334 333 332 332 332 332 331 331 331 330
315 314 315 316 318 319 320 322 324 326 327 328 329 330 330 331 332 332 332 332 332 332 333 333 334 333 332 333 333 333 332 331 332 332 332 332 333 333 333 332 332 332 333 333 332 333 334 334 334 333 332 332 333 333 333 334 333 332 332 331 331 331

ECMWFFLT2_925_thetae_075.txt.gz
Theta_e
343 342 342 342 340 336 333 335 336 336 338 338 337 335 334 333 333 334 332 334 336 340 340 335 334 334 331 330 332 335 334 334 334 331 330 329 330 333 333 333 331 331 331 328 325 321 317 317 325 331 333 334 335 336 336 334 333 334 333 332 331 330
343 343 343 341 341 338 333 335 336 335 337 337 336 335 334 332 333 335 333 336 338 341 342 338 338 335 334 335 333 334 332 332 332 329 329 329 330 332 333 332 331 331 330 329 329 326 320 320 329 333 333 335 336 337 336 335 335 335 334 333 331 330
343 342 343 342 342 340 336 339 338 337 337 336 336 337 337 336 336 337 337 340 341 342 342 340 339 336 336 337 334 331 328 328 330 329 329 328 329 333 333 332 331 331 331 334 336 335 330 326 331 334 334 337 336 336 336 336 335 333 333 332 330 328
343 342 344 343 342 341 340 342 341 339 339 338 339 339 340 340 339 339 340 341 342 342 342 341 340 338 337 337 336 331 325 325 328 328 329 328 330 332 332 332 331 331 334 337 337 337 335 331 332 335 336 336 336 336 336 335 334 333 333 332 329 328
344 344 344 343 343 342 342 343 341 341 340 340 341 341 341 340 340 340 341 341 341 341 342 342 340 339 338 337 337 333 328 328 330 328 329 332 333 333 333 334 332 332 336 337 337 335 334 333 334 336 336 335 336 336 335 334 334 333 333 331 328 328
344 344 344 344 343 342 343 342 340 340 340 341 341 341 341 340 341 342 341 341 340 341 342 341 341 340 338 336 337 335 333 332 333 331 330 334 335 335 336 337 335 334 337 338 337 336 334 334 335 335 335 335 336 335 334 333 333 333 332 330 328 328
345 345 345 344 344 343 343 341 339 340 340 340 341 341 341 340 341 341 342 341 340 341 341 340 340 340 338 337 336 335 334 333 333 333 332 334 336 336 337 338 336 336 337 337 336 335 334 334 334 334 335 335 335 334 333 333 332 332 331 330 328 327
345 345 344 343 343 342 342 341 339 340 339 339 340 340 339 340 341 340 341 341 340 340 339 339 339 339 339 338 337 336 335 334 334 334 332 333 336 336 338 337 336 336 337 337 335 334 333 334 335 334 334 334 334 333 333 332 331 331 330 331 329 327
344 341 341 341 340 340 341 339 339 340 340 340 340 339 339 341 341 340 341 341 340 340 339 339 339 338 338 338 337 337 336 335 334 333 332 333 335 336 337 337 337 337 337 336 334 334 333 334 335 334 334 334 334 334 333 332 331 331 330 331 330 325
343 341 340 340 340 340 340 340 340 340 340 340 340 340 340 341 341 341 342 342 342 342 340 339 338 338 338 337 336 337 336 335 335 334 332 333 334 334 336 337 337 337 336 336 335 333 334 334 334 334 334 334 335 334 333 332 331 331 330 331 331 325
341 341 340 339 340 340 341 341 341 340 341 342 342 342 341 341 341 341 342 344 343 341 340 340 338 338 338 337 337 337 337 335 335 335 333 333 333 333 335 337 337 337 336 335 335 334 333 333 333 334 334 334 335 334 333 332 332 332 331 331 331 328
340 340 340 340 340 340 341 341 341 341 341 342 342 342 342 341 341 341 342 344 344 341 340 340 340 340 339 338 337 337 337 337 336 335 334 333 332 333 335 336 337 337 337 336 335 335 333 332 332 333 334 335 334 334 333 332 332 332 332 332 331 330
339 339 339 339 339 340 341 342 341 341 341 342 343 342 341 341 341 342 342 343 343 342 341 340 342 341 338 338 337 336 336 337 337 336 334 334 333 333 334 336 337 337 337 337 336 335 334 334 333 334 335 334 333 334 333 333 334 333 332 332 332 331
338 338 338 339 339 340 340 341 342 342 341 342 342 341 341 342 341 341 341 342 343 343 342 341 341 340 337 338 337 336 336 336 338 337 336 335 334 333 333 333 335 337 337 336 336 336 335 335 334 335 335 334 333 334 334 333 334 334 333 333 333 332
339 338 337 337 338 339 339 341 342 342 342 342 342 341 341 341 341 340 340 341 343 343 342 341 341 339 337 337 336 337 337 336 337 337 337 336 335 334 333 332 334 336 336 336 336 336 336 335 335 335 335 334 333 335 335 334 334 334 334 333 333 333
339 339 339 338 338 339 341 342 342 342 342 342 342 341 341 341 341 340 339 340 341 343 342 341 340 339 338 337 336 336 336 335 336 337 337 337 336 335 333 332 333 335 336 336 336 336 336 336 336 336 335 334 334 335 335 335 335 334 334 333 333 333
342 342 342 342 341 342 342 342 343 342 342 342 342 341 340 340 341 341 341 340 340 342 342 341 340 339 339 337 336 335 336 335 336 338 338 336 336 335 334 333 334 333 335 336 336 336 336 336 336 336 336 335 335 335 335 335 335 334 334 333 333 333
343 343 343 342 342 342 342 342 342 342 342 342 341 341 340 340 341 341 341 340 340 341 342 342 340 340 339 337 336 335 336 336 336 338 337 336 335 335 334 335 335 333 335 336 336 336 336 336 336 336 336 336 335 335 335 336 335 334 334 333 333 333
342 343 342 342 341 341 341 341 341 341 341 342 341 342 341 341 341 341 341 341 340 341 341 341 340 339 339 338 337 336 336 336 337 337 336 335 334 334 334 336 337 335 335 336 336 336 336 335 335 336 335 335 335 335 335 335 335 334 334 333 333 333
342 342 341 341 341 340 340 340 340 339 340 341 342 342 341 342 341 341 341 340 341 340 340 340 340 339 338 338 337 336 335 335 336 336 336 335 334 334 334 335 338 336 336 337 335 334 335 335 334 335 335 335 336 335 335 335 335 334 333 333 333 333
342 340 339 340 340 340 339 339 339 339 339 340 341 341 342 342 342 341 341 340 339 339 339 340 339 338 337 336 336 337 335 335 336 336 336 335 335 334 332 335 338 336 336 336 335 334 335 335 334 335 335 335 335 336 336 335 334 334 334 333 333 332
340 339 339 339 340 340 339 338 339 339 338 338 338 339 339 340 340 340 340 339 339 338 339 339 338 338 336 335 336 336 336 336 336 336 335 335 335 334 332 334 336 336 335 335 334 334 334 335 334 333 333 334 335 335 334 334 334 334 334 333 332 332
339 338 339 338 338 339 339 339 339 339 339 338 338 337 338 339 338 338 338 338 338 338 338 338 337 337 337 336 336 336 336 336 336 336 335 335 335 334 332 333 332 333 335 334 333 334 334 334 333 332 333 334 335 335 333 332 333 333 333 333 333 334
338 338 338 338 337 338 339 339 339 339 339 339 339 339 339 339 340 339 338 337 337 337 337 338 337 337 336 336 335 336 336 336 336 336 336 335 335 334 334 333 332 332 334 333 332 334 335 334 332 332 334 334 334 334 333 333 333 333 334 333 334 334
337 337 337 337 337 338 339 338 338 339 340 340 340 340 339 339 339 338 337 337 337 337 337 338 338 336 335 335 335 335 335 335 336 336 336 334 334 335 335 335 334 333 334 333 333 334 335 335 335 336 335 335 334 333 332 334 335 334 334 333 333 334
336 337 337 337 338 338 338 338 339 339 340 340 340 340 339 337 337 338 337 337 337 338 338 338 338 337 336 336 335 335 335 335 335 336 335 334 334 335 335 334 334 333 332 331 333 334 336 336 337 338 337 335 334 334 334 335 334 334 334 333 332 333
336 336 336 337 337 337 337 338 338 338 339 339 339 340 339 338 338 338 337 337 338 338 338 337 337 336 336 336 336 335 335 336 335 335 335 334 335 335 335 334 334 333 331 332 335 336 336 336 337 337 336 336 335 334 335 334 333 333 334 332 330 332
334 335 336 336 336 336 337 337 337 337 337 338 338 339 338 338 339 338 338 338 338 338 338 337 337 336 336 336 336 335 335 335 334 335 335 335 334 334 334 335 334 333 333 336 338 337 336 336 335 335 336 336 335 334 334 334 333 333 333 332 331 332
332 333 334 335 336 336 336 336 336 336 337 337 337 338 337 337 338 337 337 337 337 338 338 337 336 336 335 335 335 335 334 334 334 334 334 335 334 333 334 335 334 333 335 337 338 338 337 334 333 334 335 335 333 334 335 334 333 333 334 333 332 333
330 331 332 333 334 335 335 336 335 336 337 337 337 337 337 337 337 337 338 337 337 337 337 337 337 337 336 335 335 334 334 334 333 333 333 334 334 334 334 335 334 334 336 336 336 338 336 332 332 335 335 333 332 334 335 334 332 333 334 332 332 333
328 328 329 330 332 333 334 334 334 335 335 335 336 336 336 336 336 337 337 337 337 337 337 337 337 337 336 335 334 334 334 333 333 332 332 333 334 334 334 334 334 335 336 335 335 336 335 333 335 336 336 334 333 334 334 333 332 333 333 333 333 333
326 326 327 328 330 331 332 333 334 334 334 334 334 334 334 335 335 336 335 335 336 336 337 337 337 337 336 335 334 334 334 333 332 331 331 332 334 334 334 334 333 333 334 334 334 334 333 335 337 336 336 335 334 335 334 332 332 333 333 333 333 332
324 324 325 326 328 329 330 331 332 333 333 333 334 333 334 334 334 335 335 334 334 334 335 336 337 337 335 335 334 334 334 333 333 331 331 333 334 334 334 335 334 332 333 334 334 334 333 335 336 335 336 335 333 334 333 332 331 331 332 333 333 331
322 322 323 324 326 327 328 329 330 331 332 332 333 333 334 334 334 334 334 334 333 331 332 334 336 337 336 335 335 334 334 334 334 333 332 333 334 334 334 334 333 332 333 334 333 334 334 334 334 333 334 335 334 333 333 332 331 331 332 332 332 331
321 322 322 322 323 324 325 326 327 329 330 330 331 332 333 333 333 333 333 334 334 332 332 332 334 336 336 336 335 335 334 334 335 335 334 333 334 334 333 334 334 333 334 333 332 333 334 334 333 333 334 335 334 333 332 332 331 331 332 332 332 330
320 320 321 321 322 323 323 324 325 326 326 327 328 330 331 332 333 334 333 334 335 333 332 333 333 334 335 336 335 335 335 334 334 335 335 334 334 334 334 335 335 334 333 333 333 334 334 334 333 333 333 333 333 334 333 332 331 331 331 331 331 331
319 319 320 320 320 321 322 322 323 322 322 324 325 327 329 330 332 333 333 334 334 334 332 332 332 332 333 334 335 335 335 334 334 335 335 334 334 334 335 335 335 334 333 333 334 334 334 334 333 333 333 332 333 335 333 331 331 330 331 332 332 332

ECMWFFLT2_925_thetae_078.txt.gz
Theta_e
341 341 341 341 338 336 336 337 338 338 337 337 338 339 339 338 337 336 334 333 333 335 334 329 331 331 329 332 335 336 336 333 331 330 329 330 332 333 332 330 330 328 323 316 314 320 328 332 333 334 335 335 335 333 332 332 333 332 332 330 328 329
342 342 342 342 339 336 334 337 338 337 337 335 336 337 337 336 336 337 335 334 335 340 339 334 336 335 330 330 330 333 336 334 331 330 329 329 331 333 332 331 330 328 324 316 315 325 332 333 334 335 336 336 336 336 335 335 334 333 332 330 328 329
343 343 343 342 341 337 335 337 337 337 338 336 335 334 334 335 337 338 337 337 338 341 341 339 339 336 335 335 329 328 333 333 332 330 329 329 331 333 332 331 330 330 331 326 321 325 332 334 335 336 336 336 336 336 335 335 334 333 332 329 325 328
343 343 342 342 341 339 337 339 339 338 339 338 336 335 335 335 337 338 338 339 340 341 341 340 340 337 337 338 334 329 328 331 332 330 329 328 330 332 332 331 330 332 336 336 332 329 330 332 334 336 336 335 336 336 335 334 333 332 331 327 324 328
343 343 342 342 340 338 338 340 341 340 339 339 337 337 337 335 336 337 338 339 340 342 341 340 339 338 339 338 336 333 326 326 331 330 329 328 329 332 332 331 330 333 336 337 337 336 332 331 334 337 336 336 336 335 334 334 333 332 330 327 326 329
343 343 342 341 339 338 339 340 341 340 339 339 338 339 338 337 338 338 338 339 341 342 341 340 339 338 339 337 337 335 328 324 328 331 330 330 334 333 333 333 331 332 336 337 338 338 335 332 335 336 335 336 335 335 334 334 334 332 330 327 326 328
342 343 342 341 341 340 340 340 340 341 340 340 340 340 340 339 339 339 338 339 341 342 341 340 340 339 338 337 337 336 332 328 328 331 330 332 337 335 335 337 333 332 334 338 338 336 334 333 334 335 334 335 335 334 333 333 334 332 330 327 323 325
343 342 342 342 342 340 340 340 340 340 341 340 341 340 340 340 339 340 339 340 340 341 342 340 340 340 337 337 337 336 334 333 331 332 331 332 336 335 336 338 336 334 335 337 337 335 334 333 335 334 333 335 334 334 333 332 333 331 331 328 322 322
343 342 342 342 343 341 340 340 340 340 341 340 341 341 341 340 339 339 340 340 340 341 342 341 340 339 338 336 336 336 335 334 333 333 332 332 335 335 336 338 337 336 335 337 337 334 333 334 334 335 334 334 333 333 333 331 332 331 331 330 326 324
342 342 342 342 342 342 341 341 340 340 340 339 339 340 340 340 340 340 340 340 340 341 341 340 339 339 339 337 336 336 335 335 334 334 333 331 333 335 336 337 337 336 336 336 336 333 333 334 334 334 334 334 334 334 332 331 331 332 331 330 330 327
342 342 341 341 341 340 340 341 340 341 340 339 339 340 339 339 339 340 339 340 340 339 340 340 339 340 339 338 337 336 336 335 334 334 333 331 332 334 335 336 337 337 337 336 335 334 333 333 333 333 334 334 334 334 332 332 332 332 332 331 331 327
342 341 340 340 340 339 340 341 341 340 340 339 340 340 340 339 339 339 338 339 339 339 340 340 339 340 338 338 338 336 336 335 334 334 333 331 332 333 334 335 336 337 337 336 335 334 333 333 332 333 334 334 334 335 333 333 332 332 332 331 331 329
342 341 340 339 340 340 340 341 341 340 340 340 341 341 341 340 339 338 338 339 339 339 339 340 340 338 338 338 338 337 337 335 334 334 333 332 332 333 333 334 336 337 337 337 335 334 333 333 332 332 334 335 334 335 333 332 332 333 332 332 331 330
341 341 340 339 340 341 340 341 341 341 341 341 342 342 341 340 339 338 338 338 338 338 339 340 340 339 339 339 338 337 337 336 335 334 334 333 332 332 332 333 335 336 337 337 336 334 333 333 332 332 334 335 333 334 333 333 334 333 332 332 332 331
342 341 341 340 340 341 341 343 343 342 342 342 342 341 341 340 339 338 337 337 336 337 339 339 340 340 340 340 339 337 336 336 336 335 335 334 334 333 332 333 334 335 336 336 336 335 334 334 334 333 335 334 333 334 334 334 334 334 333 333 333 332
344 342 343 342 340 341 342 343 343 342 341 341 342 341 340 339 339 339 338 338 335 335 337 338 339 339 339 340 339 338 337 337 336 336 336 335 335 334 332 333 334 334 335 336 336 335 334 334 334 334 334 334 333 334 334 334 335 334 334 333 333 333
344 343 344 343 341 342 343 343 342 341 340 340 342 341 340 337 338 338 337 337 336 336 336 336 338 339 338 339 339 338 338 337 336 336 336 336 335 335 333 332 334 333 333 334 335 336 334 334 335 334 335 334 334 335 335 335 335 334 334 333 333 333
344 344 344 343 343 342 342 343 342 341 340 341 341 341 340 338 338 338 337 337 336 337 337 337 339 340 340 340 339 339 338 336 336 336 335 336 335 335 334 333 333 334 333 334 334 334 334 334 334 333 334 335 335 336 335 336 335 335 335 333 333 333
343 344 343 343 342 341 342 342 341 341 340 340 341 341 340 339 339 338 338 336 335 337 338 340 341 341 340 340 339 339 338 336 335 336 336 336 336 336 335 335 334 333 333 334 333 331 332 333 333 332 333 333 335 335 335 336 335 335 334 333 334 333
343 342 341 342 341 341 341 341 341 340 339 340 340 340 339 339 340 339 338 336 336 338 339 340 340 340 340 339 339 339 338 336 335 336 337 337 336 335 335 335 335 334 334 334 332 332 332 332 331 331 332 332 334 336 335 336 335 335 334 333 334 333
342 340 340 340 341 341 341 341 340 339 340 339 339 339 339 339 339 338 337 337 337 338 338 338 338 339 339 339 339 338 337 337 336 336 336 337 336 335 335 334 335 334 334 334 333 333 333 332 331 331 332 332 334 336 336 336 335 334 334 333 333 333
340 340 339 340 340 340 341 340 340 340 340 340 339 338 338 338 337 337 337 337 338 337 337 337 337 338 338 339 338 337 336 336 336 336 336 336 336 335 335 335 335 334 334 334 334 334 333 332 332 332 333 334 335 335 335 335 335 335 334 334 333 333
339 339 339 339 338 339 340 340 340 340 341 342 341 339 338 338 338 338 337 337 338 337 337 337 337 337 338 337 337 337 335 335 336 337 336 336 336 336 335 335 334 333 334 334 333 334 334 332 332 332 333 335 336 335 335 335 335 335 334 334 333 333
338 338 339 338 338 338 339 340 339 340 341 341 341 339 339 338 338 338 337 337 337 337 337 336 336 337 337 337 336 337 336 335 336 337 337 336 337 336 336 335 334 333 334 334 332 334 334 332 332 331 332 335 336 335 335 335 335 335 334 334 334 333
338 338 338 338 338 338 339 339 339 340 341 341 340 339 338 337 338 338 337 338 338 337 337 336 336 336 337 338 337 337 337 336 335 336 336 336 336 336 336 335 334 333 333 334 333 333 333 332 332 331 332 335 337 336 335 335 335 335 334 334 334 333
337 338 338 338 338 338 339 339 339 340 340 340 340 339 338 338 339 338 338 338 338 338 338 337 337 337 338 338 338 337 337 337 336 335 335 336 335 335 336 335 335 333 333 333 333 333 333 332 332 331 332 334 335 336 335 335 336 336 334 333 334 334
336 336 336 337 338 337 338 339 338 339 338 338 339 339 339 339 339 338 338 338 338 339 338 338 338 338 338 338 338 337 337 337 337 336 335 335 335 335 335 335 335 335 333 333 333 333 333 332 331 332 332 332 333 334 335 335 336 336 335 334 333 333
333 334 334 334 336 337 337 337 338 338 338 338 338 338 338 339 339 339 339 338 339 339 339 338 338 339 338 337 337 337 337 337 337 336 335 335 335 335 335 335 335 335 333 333 333 333 333 331 331 331 331 330 332 335 335 334 334 334 335 335 334 333
330 331 331 332 333 335 336 337 337 337 337 338 337 337 337 338 338 338 338 337 337 337 338 337 337 338 337 337 336 335 336 337 337 336 335 335 335 334 335 335 335 334 333 332 333 333 332 332 331 330 330 329 331 335 336 334 333 333 335 336 335 333
328 328 329 329 331 332 333 335 336 336 336 336 336 336 336 336 336 336 336 336 335 335 336 335 335 336 337 337 336 335 334 335 336 336 335 335 335 334 334 334 334 335 334 333 333 333 332 332 332 330 331 332 334 335 335 334 334 334 335 334 334 334
325 326 326 327 329 330 331 332 333 334 334 335 335 335 335 335 335 335 335 335 335 335 335 334 334 335 336 336 336 334 333 333 335 335 334 335 334 334 334 334 334 335 335 334 333 332 332 333 332 331 331 333 335 335 335 334 334 334 334 333 333 335
324 324 325 325 326 328 329 329 329 331 332 333 333 334 334 335 335 334 334 334 334 335 335 334 333 333 334 334 335 334 333 332 334 334 335 334 334 333 333 333 334 334 334 335 334 333 333 334 333 332 332 333 335 335 334 334 333 333 334 333 333 334
323 323 324 324 325 326 326 326 327 328 328 328 329 330 332 333 334 334 334 334 334 334 335 334 334 333 333 333 334 334 334 333 333 334 334 334 334 333 332 333 334 334 334 335 334 334 334 334 333 333 333 333 334 335 334 333 334 334 333 333 333 332
322 322 322 323 324 324 324 325 325 325 324 325 325 327 329 330 331 332 333 334 334 334 334 334 334 333 332 333 333 334 334 334 334 334 334 334 334 333 333 332 334 334 334 334 334 334 334 334 334 333 333 333 333 334 333 332 333 333 332 333 333 333
321 321 321 322 322 322 322 323 323 322 322 323 324 325 326 327 328 329 330 331 333 333 332 333 334 334 332 332 333 333 333 333 333 333 334 334 334 334 333 333 333 334 334 335 334 334 334 334 334 333 333 333 333 334 332 331 332 334 332 332 333 332
320 320 320 320 321 321 321 321 321 321 321 321 322 323 324 325 325 326 326 328 330 331 332 332 333 333 333 332 332 332 333 333 333 332 333 333 333 334 334 334 334 334 334 334 334 334 334 333 334 333 333 333 333 333 332 333 334 334 332 331 331 331
319 319 319 319 320 320 320 320 320 321 320 320 321 321 322 323 323 323 324 325 326 328 329 330 332 333 333 332 332 332 332 332 332 332 333 332 332 333 334 334 334 334 334 334 333 333 333 333 333 333 334 334 334 333 333 334 334 333 332 331 331 330

ECMWFFLT2_925_thetae_084.txt.gz
Theta_e
335 332 330 330 332 334 335 335 334 333 334 335 334 334 335 335 335 336 336 336 336 336 336 336 336 336 336 335 334 334 334 331 329 331 330 330 329 329 328 320 312 311 315 323 330 332 332 332 333 334 335 334 333 333 333 333 332 331 330 328 326 326
333 331 331 332 334 334 335 336 335 335 335 335 335 335 336 336 335 335 335 336 335 334 333 332 331 332 333 334 334 334 333 331 329 331 331 331 330 329 328 321 314 313 317 327 332 332 332 333 334 335 335 334 333 333 332 332 332 330 327 325 324 326
332 332 332 334 335 335 336 337 336 336 336 336 335 335 336 337 335 334 334 334 333 333 332 331 332 331 330 331 333 334 334 331 329 330 331 331 331 329 327 321 316 317 321 329 332 331 333 334 335 335 335 335 333 332 332 332 332 330 327 323 322 325
333 333 332 333 335 335 336 337 337 336 337 336 335 335 336 336 336 335 333 332 334 337 335 335 338 336 333 332 330 330 332 331 329 329 330 331 331 330 328 322 319 324 328 331 332 332 332 332 333 334 335 335 334 333 333 333 332 330 328 324 323 323
336 336 333 332 334 335 336 336 336 336 337 336 334 335 335 335 336 335 333 333 336 340 339 337 339 338 337 336 334 331 329 330 330 328 329 330 331 331 329 325 322 328 331 331 332 332 332 332 333 334 334 334 334 334 333 333 331 330 329 326 324 323
339 339 335 332 333 335 336 336 336 336 336 335 334 334 334 334 335 335 335 335 337 340 340 339 339 339 338 338 338 335 329 328 330 329 328 329 330 330 330 329 325 326 329 331 332 332 332 333 334 334 334 333 334 334 333 333 331 330 329 327 325 323
340 340 338 334 333 335 336 337 336 336 336 335 334 333 332 332 335 336 336 337 338 338 340 340 340 339 338 338 338 336 330 326 328 329 328 327 329 329 330 330 329 328 328 331 332 333 335 335 334 334 334 333 333 335 335 333 332 331 330 328 326 322
341 341 340 336 333 334 335 337 337 337 336 336 335 333 331 332 335 337 337 337 337 338 339 339 340 339 338 338 338 337 333 327 324 328 329 328 327 328 329 331 330 330 330 332 333 334 335 336 336 335 335 334 333 334 335 333 332 331 330 328 324 321
342 341 341 338 334 334 334 335 337 338 337 337 337 335 334 334 335 336 337 337 337 337 338 339 339 339 338 338 338 337 336 331 323 324 328 329 329 327 328 331 331 331 331 332 332 332 334 335 336 335 334 335 334 334 334 333 333 331 330 327 322 324
342 341 340 339 337 335 335 335 336 337 337 337 338 337 337 337 337 336 337 337 337 337 337 338 338 338 339 338 338 337 337 334 328 326 327 328 329 329 329 332 334 334 334 334 333 332 335 336 335 334 334 334 334 333 333 333 333 331 330 326 324 327
342 342 340 340 339 337 337 337 337 337 338 339 339 338 338 338 338 338 338 337 338 338 337 337 338 338 339 338 338 338 337 336 334 331 329 328 328 328 330 333 335 335 335 336 335 335 336 336 334 334 334 334 333 333 333 332 332 331 330 327 326 328
343 342 341 341 340 339 339 339 339 339 339 340 339 339 339 339 339 339 338 338 338 338 337 337 337 338 338 338 338 338 338 336 335 334 332 331 329 329 329 331 333 334 335 335 336 337 337 336 335 333 333 333 333 333 333 332 331 331 330 328 328 329
342 342 342 341 341 340 340 339 339 339 340 340 340 339 339 339 339 339 338 338 338 338 338 338 338 338 338 338 338 338 338 337 336 335 334 333 332 331 331 330 331 332 333 335 336 337 336 337 336 334 333 333 333 333 332 331 331 331 330 330 330 329
342 342 342 341 341 341 341 340 339 340 340 339 339 339 339 339 339 338 338 337 337 337 337 338 338 338 338 338 338 338 338 338 337 336 335 334 333 333 333 333 332 331 332 335 336 336 336 336 336 335 334 333 333 333 332 332 332 331 331 330 330 329
342 342 342 341 341 340 340 339 339 340 340 339 339 338 339 339 339 339 338 337 337 337 336 337 338 338 338 338 338 338 337 337 337 336 336 335 334 334 334 334 333 332 332 334 336 336 336 336 336 336 335 332 332 333 332 332 332 331 331 331 331 330
342 341 340 340 339 339 339 339 340 341 340 340 339 339 339 339 340 339 338 337 337 337 337 336 337 337 338 337 337 337 337 337 337 337 337 336 335 335 334 334 333 332 332 333 335 336 336 336 336 336 335 333 332 332 332 332 332 332 331 331 331 331
340 340 339 339 338 339 339 340 341 341 341 341 340 340 340 340 340 339 338 337 336 336 336 336 336 336 337 337 337 337 338 338 338 337 337 336 336 335 335 334 333 332 332 332 334 335 335 335 335 335 335 333 331 332 332 332 332 332 331 331 331 331
341 340 340 340 339 340 341 341 341 340 340 340 339 339 340 340 339 339 338 337 336 335 335 335 336 336 337 338 338 338 337 337 337 337 337 336 336 336 336 335 334 333 332 332 332 333 334 334 335 335 335 332 331 332 331 331 333 332 332 331 331 331
342 342 343 342 341 341 341 340 339 339 339 339 339 339 339 339 340 339 339 338 337 336 335 334 334 334 335 336 338 337 337 337 336 337 337 337 336 336 336 335 335 334 333 333 333 332 333 333 334 334 334 332 331 331 331 332 333 332 331 331 331 331
342 343 342 342 342 341 340 339 338 338 338 339 339 339 338 339 340 339 339 339 338 337 336 335 334 334 334 335 337 337 337 337 337 337 338 338 337 336 336 335 335 335 334 334 333 333 333 333 333 333 333 332 331 331 331 332 332 332 331 331 331 331
341 341 341 340 340 340 340 340 339 339 339 339 339 339 338 338 339 338 339 339 338 337 336 335 336 336 336 336 336 337 337 337 337 338 338 338 338 337 337 336 335 335 335 334 334 334 333 333 333 333 333 332 331 329 330 332 333 333 332 331 332 332
338 338 338 339 339 339 339 339 339 339 340 340 339 339 339 338 337 337 337 338 337 336 336 335 336 336 336 337 337 338 337 337 338 338 338 337 337 337 337 337 336 335 334 334 335 335 334 333 332 332 331 331 330 329 329 331 332 333 332 332 332 332
337 338 338 338 338 339 338 339 339 339 340 340 340 340 339 338 337 337 337 337 336 336 336 336 336 337 337 338 338 338 338 337 338 338 338 337 337 337 337 337 336 335 334 334 334 334 334 333 332 331 330 330 332 332 331 330 331 332 332 332 332 332
336 337 337 338 338 338 338 338 339 339 339 340 340 340 339 338 337 337 337 337 337 336 337 337 337 337 337 337 337 337 337 337 337 337 337 337 336 336 336 336 336 335 333 333 333 332 333 333 333 332 330 330 331 332 334 332 329 331 332 332 332 332
334 335 336 336 337 337 338 338 338 339 338 338 339 338 338 337 337 337 337 337 337 337 337 336 336 336 336 336 335 335 335 335 335 335 336 335 335 334 334 334 335 335 333 332 330 330 331 332 333 333 331 330 331 332 334 332 330 331 331 331 332 332
332 333 333 334 335 336 336 337 336 336 336 336 336 336 336 335 336 336 336 337 337 336 336 336 336 335 335 335 334 334 334 334 333 333 334 334 332 332 332 332 333 333 331 331 330 330 331 330 332 333 331 331 331 332 332 331 333 335 332 331 332 332
329 330 331 332 333 334 335 334 333 333 333 333 333 333 333 333 334 334 335 335 335 335 335 335 335 334 334 333 333 333 333 333 333 332 332 332 331 331 332 332 332 332 330 330 330 330 330 330 331 332 332 331 329 329 330 330 333 336 335 333 332 333
327 327 328 329 330 331 331 331 331 331 330 330 330 330 331 331 332 332 333 333 333 333 333 333 333 333 333 333 333 333 333 332 332 332 331 331 331 332 332 332 332 332 331 331 330 330 330 330 329 330 331 331 329 329 329 329 330 331 333 334 333 332
324 325 325 326 327 327 328 328 329 328 328 328 328 329 329 329 329 329 330 330 331 331 331 331 332 332 332 333 333 333 332 331 331 331 331 331 331 331 331 332 332 332 331 331 331 330 329 329 329 330 330 330 330 329 329 328 328 328 329 332 333 333
323 323 323 323 323 324 324 325 325 325 325 326 326 327 327 326 326 326 327 327 327 328 328 329 330 330 331 331 332 332 332 331 331 331 331 331 331 331 331 332 332 333 332 332 331 331 330 330 330 330 330 330 330 329 329 328 328 328 328 329 331 332
322 321 320 320 320 321 321 321 321 321 322 323 324 324 324 323 323 324 324 324 324 324 325 327 328 328 329 329 329 330 330 331 331 331 331 331 331 332 332 332 332 333 333 332 332 332 332 331 331 330 330 330 330 330 329 328 329 328 328 328 330 331
321 320 319 319 320 320 320 320 319 318 319 320 320 320 320 320 321 322 322 321 321 322 324 326 326 326 327 327 328 329 329 329 330 330 330 330 330 330 331 332 332 332 333 332 332 332 332 332 331 330 330 329 330 331 330 329 329 329 329 329 329 330
321 319 318 318 319 319 320 320 319 318 318 318 318 318 318 319 319 319 319 319 320 320 321 323 323 323 323 325 326 327 328 329 329 329 329 329 329 329 329 330 330 331 332 332 332 332 332 332 331 330 330 329 330 331 330 330 330 329 329 329 329 329
320 318 317 317 318 318 318 318 318 318 318 317 317 317 317 318 318 318 317 317 318 318 319 319 319 320 320 322 323 325 326 326 326 327 328 328 329 329 329 329 329 329 329 330 331 331 331 332 332 331 330 330 330 330 330 330 330 329 328 328 328 328
318 317 316 316 316 316 316 316 316 317 317 317 315 315 315 316 317 317 316 315 315 316 316 316 317 317 318 319 320 321 322 322 322 324 326 327 328 328 329 329 329 328 328 328 329 330 331 331 331 330 329 329 330 330 330 331 330 329 328 328 329 329
317 316 315 315 315 315 315 314 314 315 315 314 314 313 313 314 314 315 314 313 313 313 313 314 315 315 316 316 316 317 318 318 319 321 322 324 325 326 327 328 328 328 328 328 328 329 329 330 330 330 329 329 330 329 330 331 330 329 329 329 329 329
315 314 314 314 314 314 313 313 313 313 313 312 312 312 312 312 311 312 312 312 311 311 311 312 312 313 313 313 313 313 314 315 317 318 319 320 321 321 322 324 324 325 326 327 327 328 328 328 329 329 328 328 329 329 329 330 330 330 330 330 330 329

ECMWFFLT2_925_thetae_087.txt.gz
Theta_e
335 334 332 331 333 334 334 333 333 334 334 334 334 335 335 335 335 336 336 337 336 336 337 337 336 336 336 335 335 334 334 332 329 330 330 329 329 328 323 315 312 314 320 326 330 331 332 333 333 334 333 333 333 332 332 332 332 331 329 327 325 324
335 334 332 332 334 335 335 334 333 333 334 334 334 334 334 334 334 335 336 336 336 336 335 334 333 333 334 334 334 334 334 333 330 329 331 330 329 329 325 316 312 315 321 328 331 332 333 333 333 334 334 333 333 332 332 332 331 330 328 326 324 324
335 335 334 333 334 335 335 334 333 334 334 334 334 334 334 333 332 334 335 335 334 333 331 329 330 331 331 331 332 334 334 333 330 329 330 331 330 329 326 318 313 315 321 328 331 333 334 333 333 334 334 333 332 332 332 331 331 329 327 324 323 324
335 335 335 334 334 336 335 334 333 334 334 334 334 333 333 333 332 333 334 333 333 333 331 331 333 334 331 330 330 331 332 333 331 329 329 330 330 330 327 320 315 316 323 330 332 333 334 333 333 333 334 334 333 332 332 332 331 329 327 325 323 324
335 335 336 335 334 336 335 333 334 333 333 334 333 332 333 333 332 332 332 332 334 336 337 336 337 336 334 334 333 332 331 330 330 329 329 329 330 330 328 322 318 320 326 331 332 332 333 332 332 332 332 333 333 333 332 332 332 330 328 326 325 325
336 336 335 335 334 336 335 333 333 333 333 333 332 332 332 333 332 332 332 332 334 337 339 339 338 337 337 337 337 336 334 329 329 329 328 329 330 330 329 325 322 326 330 331 332 331 331 332 332 332 333 333 333 333 333 333 332 331 329 327 326 325
337 336 335 334 335 335 334 332 333 333 333 333 332 332 331 332 332 332 332 334 335 336 338 339 339 339 338 337 337 337 335 330 327 328 328 328 329 330 330 327 325 329 331 331 331 331 332 333 334 335 335 334 334 333 333 333 332 331 330 328 327 325
339 338 334 333 334 334 333 333 334 334 334 333 332 331 330 329 331 332 333 335 336 337 338 338 339 340 339 338 337 337 336 332 327 326 328 328 327 328 329 329 327 328 329 330 331 331 334 335 335 335 334 334 334 334 334 333 332 332 330 329 327 324
340 339 336 332 332 332 333 334 335 336 336 334 333 331 329 329 330 332 334 336 336 337 337 337 338 339 340 339 338 337 337 336 330 325 326 328 328 327 328 329 329 328 328 329 330 331 333 333 333 334 335 334 334 334 334 334 333 332 331 330 327 323
340 340 339 334 332 332 333 335 336 337 336 335 334 333 332 331 331 332 334 335 336 336 336 337 337 338 339 339 339 338 337 337 335 328 324 326 328 328 328 328 330 331 330 330 331 332 333 334 334 335 335 334 333 334 334 334 333 332 331 331 327 323
341 341 340 338 335 333 334 334 335 336 336 336 336 335 335 335 335 335 336 336 336 336 337 337 337 337 338 339 339 338 338 337 337 333 328 326 327 328 328 328 330 332 333 333 333 334 335 336 336 336 335 334 333 334 334 333 333 332 331 331 327 324
341 341 340 340 338 336 336 336 336 336 336 337 337 338 337 337 337 338 338 338 338 338 338 338 337 337 337 338 339 339 338 338 338 336 334 332 330 329 328 328 328 330 333 333 334 335 335 335 336 336 336 335 333 333 334 333 333 332 331 331 327 326
341 341 341 340 340 339 338 337 338 338 338 338 339 339 339 339 338 339 339 338 339 339 338 338 337 337 337 337 338 338 338 338 338 337 336 335 333 332 331 330 329 329 330 331 332 333 333 334 336 336 336 336 334 333 333 333 332 332 331 330 328 327
341 342 341 341 341 340 340 340 339 339 339 339 339 339 339 338 338 338 338 338 338 338 338 337 337 337 337 337 337 337 338 338 338 338 338 337 335 334 333 333 332 331 331 332 332 331 332 334 335 336 336 335 333 332 332 332 332 331 331 330 328 328
341 341 341 341 341 340 340 340 340 339 339 339 339 339 338 338 338 338 338 339 339 338 337 337 336 336 336 337 337 337 337 337 338 337 337 337 336 335 335 334 334 333 333 333 333 331 332 334 335 336 335 333 331 331 331 331 330 330 330 330 328 329
341 341 341 341 340 340 340 339 339 339 339 339 339 339 338 338 339 339 339 339 338 337 336 336 336 336 336 336 337 337 337 338 338 337 337 337 337 336 336 335 335 334 334 334 333 332 331 333 335 336 334 332 333 332 330 330 330 330 329 329 328 329
341 341 341 340 339 338 339 338 339 340 340 340 339 339 339 339 340 339 339 338 338 337 336 335 335 335 336 336 336 337 337 338 337 337 337 338 337 337 337 336 336 335 334 334 333 333 331 332 333 334 334 334 334 333 331 330 331 330 330 329 327 328
341 340 340 339 339 339 340 340 340 340 340 340 340 339 339 339 339 339 339 339 338 336 335 335 335 335 335 335 336 337 337 338 337 337 338 337 337 337 337 337 336 335 335 335 334 333 332 332 332 333 334 334 334 333 332 331 330 330 330 330 327 327
341 340 340 341 340 341 342 340 340 340 339 340 339 339 339 338 338 338 339 339 338 337 336 336 335 335 335 334 335 336 337 337 337 337 337 337 336 337 337 337 337 336 336 335 335 334 333 333 333 333 333 333 333 333 333 331 330 330 330 331 330 328
341 341 341 342 341 341 341 340 339 339 339 339 339 339 339 338 338 338 338 338 338 338 337 336 335 334 335 335 335 335 336 336 336 337 337 336 337 337 337 337 337 336 336 335 334 335 334 333 333 333 333 333 333 333 333 331 330 330 330 331 331 329
339 340 340 341 341 340 340 339 339 339 339 339 339 339 338 338 338 337 337 336 337 337 336 336 335 335 335 335 335 335 336 337 337 337 337 337 336 336 336 336 336 336 335 333 332 334 334 333 331 331 332 332 332 332 332 332 331 330 331 331 331 330
338 339 339 339 339 339 339 339 340 339 339 339 339 339 339 338 338 337 337 336 336 336 336 336 336 336 336 336 336 336 336 336 335 336 336 335 335 335 335 335 335 334 334 332 332 333 332 332 331 331 330 330 331 331 331 331 331 331 330 331 331 331
337 338 338 338 338 338 338 338 339 339 339 339 339 339 339 338 337 337 337 337 337 336 336 336 336 336 336 336 335 336 336 335 334 335 335 334 333 333 333 333 332 332 332 332 332 333 333 332 332 331 329 329 331 332 332 330 329 331 330 331 331 332
336 337 337 337 337 338 338 338 338 338 338 339 338 338 337 337 336 337 337 337 337 336 336 336 335 335 335 334 334 334 334 334 334 334 334 333 332 332 332 331 331 331 331 332 332 332 332 332 332 331 329 329 329 331 334 331 328 330 330 330 331 331
335 335 336 336 336 337 338 338 338 338 337 336 336 335 335 334 335 335 335 335 335 335 334 334 334 334 334 333 333 333 333 333 333 333 332 332 332 331 331 331 331 331 331 331 332 332 331 331 331 331 330 330 330 332 334 331 329 331 330 329 330 331
333 334 334 335 335 336 336 336 337 336 335 333 333 332 331 331 332 333 333 333 334 333 333 333 333 333 333 333 333 332 332 331 331 331 331 331 331 331 331 330 330 331 331 331 331 330 330 330 330 330 330 331 331 332 332 329 331 334 332 329 330 330
330 331 332 332 333 334 334 334 334 333 331 331 330 329 328 328 329 330 331 332 332 332 332 332 332 332 332 332 332 332 332 331 331 331 331 331 331 331 331 331 331 330 331 331 331 330 330 330 330 330 330 330 330 331 330 329 330 333 334 332 330 329
328 328 329 330 330 331 330 330 330 330 329 328 327 326 326 327 327 328 329 329 329 329 329 329 330 330 330 330 330 331 331 331 331 331 331 330 330 330 330 330 331 331 331 331 331 330 330 330 330 330 330 330 330 330 329 328 328 329 331 333 332 330
325 325 326 326 327 327 327 327 327 327 327 326 325 324 324 325 326 326 326 326 326 327 327 327 327 328 328 329 329 329 329 330 330 330 330 330 329 329 329 330 330 331 331 332 332 331 330 330 330 330 330 329 329 330 329 328 328 328 328 330 332 332
322 322 322 323 323 324 324 324 324 324 324 324 323 323 323 324 324 324 324 323 323 324 324 325 325 326 326 327 328 328 328 329 329 329 329 329 329 329 329 329 329 330 330 331 332 332 331 331 331 330 330 330 329 329 329 328 328 328 327 328 330 331
320 320 321 321 321 321 321 321 321 321 321 321 321 321 322 321 321 320 320 320 321 321 321 322 323 324 324 325 326 326 327 327 327 328 328 328 328 328 329 329 329 329 329 330 330 331 331 332 331 331 331 330 330 330 329 329 328 328 327 327 328 329
319 320 320 320 319 318 318 318 318 318 318 318 318 319 319 319 318 317 317 317 318 318 318 319 320 321 322 322 322 323 324 323 324 325 325 326 327 327 327 328 328 329 329 329 328 329 330 330 330 331 332 331 330 330 330 329 328 328 328 327 328 329
318 319 319 319 318 318 318 317 316 316 316 316 317 317 317 317 315 314 314 314 314 314 314 315 316 317 317 317 318 319 320 319 320 321 322 322 324 325 325 326 327 327 328 327 327 327 328 328 329 330 330 330 330 330 330 330 329 328 328 327 327 329
316 317 317 317 317 317 317 317 316 314 314 314 315 315 314 314 313 312 312 311 311 312 312 312 313 313 313 313 314 315 315 317 317 317 317 319 321 322 323 324 324 324 325 325 325 326 326 327 328 328 328 329 330 330 329 329 328 328 328 328 327 328
315 315 315 315 315 315 315 315 314 313 313 313 313 312 312 312 311 311 310 310 309 309 310 310 310 310 310 311 311 312 313 314 314 313 314 315 317 319 320 320 321 321 322 322 322 324 325 326 327 327 327 328 328 329 329 329 329 329 328 328 327 328
314 314 314 313 313 313 313 313 312 312 312 311 311 311 310 310 309 309 308 308 307 307 307 307 308 308 308 308 309 309 310 311 311 309 311 312 313 315 316 316 317 318 319 319 320 321 323 324 325 327 327 327 328 328 329 329 329 329 328 328 327 327
313 313 312 312 312 312 311 311 311 311 310 310 309 309 308 308 307 307 306 306 305 305 305 305 305 305 306 306 306 307 308 308 307 307 309 310 311 312 313 313 313 314 315 315 317 319 320 322 323 324 326 327 327 328 328 328 329 328 328 328 328 327

ECMWFFLT2_925_thetae_093.txt.gz
Theta_e
340 339 337 335 334 335 333 332 334 334 334 336 336 337 337 337 338 338 337 337 337 337 335 333 334 336 335 333 334 335 333 330 328 329 329 329 330 326 317 314 317 320 325 330 332 332 332 332 333 333 333 332 332 332 331 331 331 329 330 329 328 328
338 336 335 333 333 334 333 333 333 333 334 335 334 335 336 338 338 338 338 337 336 334 331 329 330 331 331 331 335 336 335 332 330 329 329 329 329 329 321 314 315 320 325 330 332 333 333 333 333 332 333 333 332 332 331 331 331 330 330 329 329 327
336 334 333 333 333 333 333 332 333 334 335 334 334 334 336 337 337 337 336 335 334 332 329 331 332 331 329 330 333 335 335 333 331 329 329 329 328 329 326 316 315 319 325 330 332 333 334 334 335 334 332 332 332 332 331 331 331 331 330 329 328 326
334 334 334 333 333 333 332 333 334 335 335 335 334 334 335 336 335 335 334 333 332 331 332 335 336 334 333 333 334 334 334 332 330 330 329 329 328 329 328 321 316 320 325 329 332 333 333 334 335 334 333 332 332 332 331 331 331 331 330 328 328 325
333 334 334 334 334 333 332 334 335 335 336 335 335 335 334 334 334 334 333 333 334 336 336 337 337 336 337 337 337 336 336 334 331 330 329 328 329 328 328 325 320 320 325 330 332 333 332 332 332 333 333 332 333 332 332 332 332 332 331 329 328 326
333 334 334 335 335 334 333 334 335 335 335 335 335 335 334 334 333 332 331 333 336 338 337 338 338 338 339 338 339 338 337 337 335 333 330 328 328 328 328 328 324 323 326 330 331 331 331 330 331 333 333 333 333 333 333 333 332 332 332 331 329 327
334 334 335 335 335 335 334 335 335 334 335 335 335 335 335 334 334 332 331 334 336 337 337 337 338 338 338 338 339 339 338 338 337 336 333 330 328 327 328 328 327 326 328 331 331 330 331 330 331 332 333 333 334 334 333 333 333 332 332 332 330 329
335 334 335 336 335 335 334 335 335 335 335 335 334 335 335 334 334 333 332 334 336 336 337 337 337 337 337 337 338 338 338 338 338 337 337 334 329 327 327 328 328 328 329 332 332 331 331 331 331 332 334 334 335 335 335 333 333 333 332 332 331 330
335 335 335 336 335 335 335 335 336 336 335 335 335 335 334 334 334 333 331 333 335 336 337 338 338 338 338 338 338 338 338 338 338 337 338 337 333 329 327 327 328 329 330 332 333 333 332 332 332 332 333 334 334 335 335 335 333 333 332 332 332 331
335 335 335 336 336 336 336 336 336 337 336 336 336 335 335 335 335 334 334 335 337 338 338 339 338 338 338 338 337 338 337 338 338 338 338 337 336 334 331 329 328 328 330 331 332 332 332 333 333 333 333 333 333 333 335 335 334 334 333 333 333 332
336 335 335 336 336 336 337 337 337 337 338 336 336 337 337 338 337 338 338 338 338 338 339 338 338 338 338 337 337 337 337 337 337 337 338 337 337 336 335 333 330 329 329 329 330 330 330 332 333 334 333 332 332 332 333 334 334 334 334 333 333 332
338 338 338 337 336 336 337 337 337 338 338 337 337 338 339 339 338 338 338 338 338 338 338 338 337 337 337 337 337 337 337 337 337 337 337 337 337 337 337 336 334 333 331 329 328 328 329 329 332 333 332 332 331 332 332 333 334 334 334 333 333 333
338 339 339 339 338 338 338 338 337 338 338 338 338 339 339 339 338 338 337 338 338 338 338 336 336 335 336 336 336 337 336 337 337 337 337 337 337 337 337 337 337 336 335 333 331 329 329 329 331 333 332 332 332 332 332 332 333 334 334 334 333 333
338 340 340 340 340 339 339 339 339 339 339 338 339 339 339 338 338 337 338 338 338 337 336 336 335 335 334 335 336 336 336 336 337 337 337 337 337 337 337 337 337 336 336 336 335 334 333 333 334 334 333 333 332 333 332 332 333 333 334 334 333 332
339 340 341 341 340 340 340 340 339 339 339 339 339 339 338 338 338 338 337 338 337 336 336 336 335 335 334 334 335 335 335 336 336 337 337 337 337 337 337 337 337 336 337 337 337 336 336 336 335 335 334 334 333 333 332 332 332 333 333 334 333 332
340 341 341 341 340 340 340 339 338 338 339 339 339 338 338 338 338 337 337 337 337 337 336 336 335 334 334 334 334 334 335 335 336 336 336 336 336 336 336 336 336 336 336 336 336 336 336 336 336 336 335 335 334 333 332 331 331 332 332 333 333 333
341 340 340 340 339 338 338 338 339 339 340 339 339 338 338 338 338 337 337 337 337 336 336 335 335 334 334 334 335 335 335 335 336 336 336 336 335 336 336 335 336 336 335 335 335 335 336 336 336 336 336 335 335 334 333 332 332 332 332 332 333 332
341 339 338 338 339 338 338 339 339 339 339 339 338 338 338 337 337 336 336 336 336 336 335 335 335 335 335 335 335 335 336 336 336 335 334 334 334 335 335 335 335 335 335 334 334 334 334 335 335 334 335 335 335 335 334 334 334 334 333 333 333 333
339 338 338 338 338 338 339 339 339 338 338 338 338 338 338 337 336 336 335 335 335 335 335 335 335 335 335 335 335 335 335 335 335 335 334 334 334 334 334 334 334 334 334 334 333 333 333 332 333 333 333 333 334 334 334 334 334 334 334 334 333 333
338 337 338 339 339 339 339 339 339 339 338 338 337 337 337 337 336 336 335 335 335 334 334 334 334 334 334 334 334 334 334 334 334 334 334 334 334 333 333 333 333 333 333 333 332 332 332 332 332 332 332 332 333 333 333 333 334 334 334 334 334 333
338 338 339 340 339 339 339 339 339 339 337 337 336 336 336 336 336 335 335 334 334 334 333 333 333 333 333 333 333 333 333 333 332 333 333 333 333 332 332 332 331 332 332 332 332 332 331 331 331 332 332 332 332 332 332 333 333 333 334 334 334 333
339 339 339 339 338 338 339 338 338 337 337 336 335 335 334 334 334 334 333 333 333 333 332 333 333 332 332 332 332 332 332 332 332 331 331 331 331 331 331 331 330 330 331 331 331 331 331 330 331 332 332 332 332 332 333 332 332 332 333 333 333 333
338 338 338 338 337 338 338 338 337 336 335 334 333 333 332 332 332 332 332 332 332 332 332 332 332 332 332 332 332 332 331 331 330 330 329 329 330 330 330 330 330 330 330 330 331 331 330 329 330 332 332 332 331 331 332 333 332 332 332 331 331 332
336 336 337 337 337 337 337 337 336 334 333 332 331 331 330 330 330 330 330 330 330 330 331 330 331 331 331 331 331 331 330 330 330 329 328 329 329 329 329 329 329 329 330 330 330 330 330 328 329 330 331 331 331 331 331 332 331 331 331 331 330 331
336 336 336 336 336 336 336 335 334 333 332 331 330 329 329 329 329 329 328 328 328 328 329 329 329 329 330 330 330 330 330 330 329 328 328 328 329 328 328 328 328 328 329 329 329 330 330 329 328 328 330 331 331 331 331 330 330 331 331 331 331 330
334 334 334 334 335 334 333 332 332 332 331 330 329 328 327 326 326 326 326 325 325 325 326 327 327 328 328 328 328 328 328 329 329 328 327 327 328 328 328 327 327 327 327 328 328 329 330 329 328 327 329 331 330 330 330 330 331 331 331 331 331 331
332 332 332 332 332 332 332 331 330 330 329 328 326 325 324 324 324 324 324 323 322 323 323 324 324 325 325 325 325 325 325 326 326 326 325 326 325 325 326 326 326 326 326 327 328 329 329 329 328 328 329 330 329 329 330 330 330 331 330 330 331 331
329 329 329 330 330 330 329 328 327 327 325 325 324 323 322 321 321 321 322 321 320 320 320 320 321 322 322 322 322 321 321 322 323 322 323 323 322 322 323 324 324 324 324 326 327 328 328 328 328 328 328 328 329 329 330 331 330 330 330 330 331 331
325 325 325 326 327 327 326 325 325 324 323 323 322 320 319 319 319 319 319 319 318 318 318 317 318 317 317 317 317 317 317 318 319 319 319 320 319 320 321 321 321 321 321 323 323 324 325 325 326 326 326 327 328 329 330 330 330 331 331 331 331 330
321 321 321 322 323 323 322 322 322 322 321 320 319 318 317 317 316 316 316 316 316 315 315 314 314 314 314 313 314 314 313 314 315 315 316 317 317 317 318 318 319 319 319 320 320 321 321 322 323 323 324 325 326 328 328 329 330 330 330 331 331 330
318 318 318 319 319 319 318 319 318 318 318 317 316 316 315 314 314 314 313 313 313 312 312 311 310 311 311 311 311 311 311 312 312 313 313 314 315 315 315 315 316 316 317 317 317 318 319 319 320 320 321 323 324 324 326 327 329 329 329 329 330 330
316 316 316 316 316 316 315 315 315 315 314 314 313 313 312 311 311 311 311 310 310 310 309 308 308 308 308 308 308 308 308 309 309 309 309 310 310 311 311 312 312 313 313 314 314 315 315 316 316 317 318 320 321 321 323 325 326 327 327 328 328 329
315 314 314 314 314 313 313 313 313 312 312 311 311 310 309 309 309 308 308 308 308 308 307 307 307 307 307 306 305 304 304 304 304 304 305 305 306 307 308 308 308 309 309 309 310 310 310 311 311 313 315 316 318 319 321 322 323 324 325 326 327 328
314 313 313 313 312 311 311 311 310 310 310 309 308 308 307 307 306 307 306 306 306 306 306 306 305 305 306 304 302 302 302 302 302 302 303 303 304 304 305 305 305 305 306 306 306 306 306 307 307 309 310 311 313 315 317 319 321 322 323 324 326 327
313 312 312 311 311 310 309 309 308 308 307 307 307 306 306 305 305 305 305 305 305 305 305 304 304 304 303 302 300 300 300 301 301 301 301 302 302 303 304 304 303 303 304 304 304 304 305 305 305 305 306 307 309 310 313 315 317 319 320 321 322 324
311 311 310 310 309 308 308 307 307 306 306 306 306 305 305 305 304 304 304 303 304 303 303 303 303 301 300 299 299 299 299 299 299 299 300 300 301 302 302 302 301 301 302 302 303 303 304 304 305 305 305 305 306 307 309 311 312 315 316 317 319 321
310 310 309 309 308 307 307 306 305 305 305 305 305 305 305 304 304 303 303 303 303 302 302 302 301 300 299 298 298 298 298 298 298 298 298 299 299 300 301 300 300 300 300 301 302 303 303 304 304 304 305 305 305 306 307 308 309 310 312 314 316 317

ECMWFFLT2_925_thetae_096.txt.gz
Theta_e
342 341 340 340 339 337 334 335 337 338 339 339 340 339 339 338 338 338 338 337 337 338 337 336 338 337 336 335 335 333 330 331 331 330 331 332 332 325 315 317 321 324 330 331 332 332 332 333 333 333 332 332 334 337 336 335 335 335 335 332 333 332
341 340 339 339 338 337 335 336 337 338 339 339 339 338 338 338 339 338 336 337 337 337 336 336 336 335 336 337 336 335 333 331 331 332 332 330 331 328 317 315 320 325 330 331 332 334 335 333 333 333 332 334 336 336 335 335 335 334 335 334 334 330
339 338 337 337 337 336 336 336 336 337 338 338 338 338 338 339 339 338 337 337 336 335 335 335 334 333 334 335 335 334 333 331 331 330 330 329 330 329 322 315 318 324 329 331 334 337 338 337 335 333 334 336 336 335 335 336 335 334 335 334 334 330
337 336 336 336 336 336 336 335 336 337 337 337 337 337 338 338 338 337 337 336 336 336 337 336 335 335 335 336 334 333 333 332 332 331 330 333 332 331 329 321 317 323 330 332 334 335 336 338 337 336 337 337 336 336 336 335 335 335 335 334 334 331
336 336 336 336 336 335 336 336 337 337 337 337 336 336 336 336 337 336 336 337 338 339 339 339 340 340 340 339 338 336 335 334 335 333 332 335 335 333 335 331 323 325 332 334 334 334 334 337 337 337 337 336 336 336 336 335 335 335 335 335 334 332
336 336 336 336 336 336 336 337 337 337 337 336 336 336 335 335 336 336 337 338 339 341 341 341 341 342 341 341 341 340 339 337 336 335 334 335 335 335 335 334 330 329 333 334 334 334 334 335 335 335 335 335 336 336 336 335 336 336 336 336 335 333
336 336 336 337 337 336 336 337 337 337 337 336 336 336 336 336 337 337 338 339 340 342 341 342 342 342 342 342 342 341 341 340 339 337 336 335 335 336 334 334 332 331 331 333 334 334 334 334 335 335 334 335 335 336 336 335 335 336 336 336 335 334
336 336 337 337 337 336 337 337 337 337 336 336 336 337 337 337 337 338 338 339 340 341 341 341 341 341 341 342 341 341 341 341 341 340 338 336 335 335 334 334 333 331 331 333 334 334 334 335 335 335 335 335 336 336 336 335 335 336 336 335 336 334
336 337 338 337 337 337 338 338 338 338 337 337 337 337 337 337 337 338 338 338 339 341 341 340 341 341 341 341 342 342 341 341 341 340 340 339 337 335 334 334 334 332 331 331 333 334 335 335 335 336 335 335 335 335 335 335 336 336 336 335 336 335
337 337 337 338 338 338 338 339 339 339 339 338 338 338 338 338 338 339 339 339 340 341 341 341 341 341 340 340 340 341 341 341 341 340 340 340 339 337 336 334 334 333 332 331 331 332 334 334 334 335 335 335 335 335 335 335 335 335 336 336 336 336
337 337 337 338 338 338 339 339 339 341 341 340 340 340 340 340 340 340 339 340 341 341 341 341 341 340 340 339 339 339 339 340 340 340 339 340 340 339 339 337 336 335 334 333 332 332 333 332 332 332 333 334 335 335 335 335 335 336 336 336 336 336
337 338 338 338 338 339 339 339 340 341 341 340 340 341 341 340 340 340 340 340 341 340 340 340 339 339 339 339 339 338 338 338 339 339 339 339 340 339 340 339 338 337 336 335 333 332 332 332 332 332 332 333 334 334 334 335 336 336 336 337 336 336
339 339 339 339 339 339 339 339 340 340 340 341 340 341 341 340 339 340 340 340 340 339 338 338 338 338 338 338 338 337 338 338 338 339 339 339 340 340 340 340 339 339 338 338 337 335 333 333 332 332 331 332 333 333 333 334 335 335 336 336 336 335
341 341 340 340 340 340 340 340 340 340 340 340 341 341 340 340 339 340 340 340 340 339 339 339 338 337 337 337 337 337 337 338 338 338 339 339 340 340 340 340 340 339 340 339 339 338 337 336 335 334 334 335 335 335 334 334 335 335 336 336 336 336
341 342 341 341 341 340 341 340 339 340 340 340 341 340 340 340 340 340 340 340 339 339 339 339 338 337 337 336 336 336 336 337 337 338 339 339 339 339 339 339 339 339 339 339 339 339 339 339 339 338 338 338 338 338 338 337 337 337 336 337 337 337
340 341 341 340 341 341 341 340 339 340 340 340 340 340 340 340 340 340 340 340 339 339 339 338 337 337 336 336 336 336 336 337 338 338 338 337 338 338 337 338 338 338 338 339 339 338 338 339 339 339 339 339 339 339 339 339 338 339 338 337 337 337
340 340 340 341 341 341 340 340 340 341 340 340 340 340 340 339 339 339 339 339 339 339 338 338 337 337 337 336 337 337 338 338 339 339 338 338 338 337 337 337 338 338 338 338 338 337 338 338 338 338 338 338 338 339 339 338 339 338 339 338 338 338
340 341 341 341 341 340 340 340 340 340 340 340 340 340 339 339 339 338 338 338 338 338 337 338 338 338 338 337 338 338 338 338 338 338 338 339 339 338 337 337 338 338 337 337 337 337 336 336 336 336 336 336 336 337 337 337 338 338 338 338 337 337
341 341 341 341 340 340 341 340 340 340 340 339 339 339 339 338 338 338 338 337 338 338 337 337 337 337 337 337 337 337 337 337 337 337 338 338 338 338 337 336 336 337 337 336 336 336 336 335 334 334 334 334 334 335 335 336 336 337 337 337 337 337
341 341 340 340 340 340 340 340 340 340 339 339 338 338 338 338 338 337 336 336 336 336 336 336 336 336 336 336 337 336 336 336 335 336 336 336 336 335 335 334 334 334 335 335 334 334 334 334 333 333 333 334 334 334 335 336 336 336 336 336 337 336
341 341 340 341 341 341 341 341 341 340 338 338 337 337 337 336 336 336 335 335 335 335 335 335 335 334 334 335 335 334 334 334 334 334 334 334 334 334 333 333 333 333 333 333 333 333 333 333 333 333 333 333 333 333 335 336 336 336 336 335 336 336
341 341 341 341 341 341 341 340 340 338 337 337 336 336 335 335 334 334 334 334 334 333 333 334 334 334 333 333 333 333 334 333 333 333 333 333 332 333 332 332 333 333 333 332 332 332 332 333 332 332 333 333 332 333 334 336 337 336 336 335 335 335
341 341 340 339 339 339 339 339 338 337 336 336 335 335 334 333 333 333 332 332 332 332 332 332 333 332 332 332 332 332 333 332 332 332 332 332 332 332 332 332 332 332 332 332 332 331 332 332 332 332 332 332 332 331 332 335 336 335 335 335 335 335
339 339 338 338 338 338 338 337 337 336 335 334 333 333 333 332 332 331 331 331 331 331 331 331 331 331 331 331 331 331 331 331 331 330 330 330 330 331 331 331 331 331 331 332 332 331 331 332 332 332 331 330 331 330 331 332 332 333 333 334 334 335
337 337 337 337 337 336 336 336 335 334 333 333 332 331 331 331 330 330 329 329 329 329 329 329 329 329 328 328 329 329 329 329 329 329 328 328 328 329 329 329 329 330 330 331 331 332 331 331 332 332 331 331 331 330 330 330 331 332 332 332 332 332
335 335 336 336 336 335 335 335 335 334 334 333 332 331 330 330 329 329 327 327 326 325 325 325 325 325 325 325 325 325 326 326 326 325 325 325 325 325 325 326 327 327 328 328 329 331 331 331 331 331 332 332 332 331 331 331 331 331 331 331 331 331
334 334 335 335 335 335 335 335 334 334 333 332 331 330 329 328 328 327 326 325 323 321 320 320 321 321 322 322 322 322 322 323 323 322 322 322 322 322 322 323 324 324 325 325 326 327 328 328 329 330 331 331 331 331 331 332 331 331 331 331 330 331
332 332 333 333 334 334 334 333 333 332 331 330 329 328 327 326 325 325 324 324 322 320 319 319 319 319 319 319 319 319 319 320 320 320 319 319 319 319 320 321 322 322 322 323 323 324 324 325 326 327 328 328 328 329 330 331 331 331 331 331 331 330
329 329 329 330 331 331 331 331 331 330 329 328 327 326 325 324 324 323 323 322 321 320 319 318 317 317 317 316 316 316 316 317 317 317 317 317 318 318 318 319 319 319 319 320 321 321 322 322 323 324 324 324 325 326 327 328 329 330 331 331 330 329
326 326 326 326 327 328 328 328 328 328 327 326 325 324 323 323 323 322 321 320 319 318 317 316 314 314 314 313 313 313 313 313 313 313 313 314 314 314 315 316 316 317 317 318 318 319 319 319 320 321 321 321 322 323 324 325 326 327 329 330 329 329
322 323 323 323 324 324 324 324 324 324 324 323 323 323 322 321 321 320 319 318 317 316 314 313 312 312 311 311 310 310 310 310 310 310 310 311 311 311 312 313 314 314 314 314 315 315 315 316 316 317 317 319 319 320 321 322 323 324 326 327 327 328
321 321 321 321 321 321 321 321 321 320 320 320 320 320 319 318 317 317 316 315 315 314 312 312 311 310 310 309 309 308 308 308 308 308 308 309 309 309 310 312 312 312 312 312 311 311 312 312 312 313 313 314 315 317 318 319 320 321 322 323 324 326
320 320 320 319 319 319 318 318 318 318 317 317 317 317 316 315 315 314 314 313 313 312 311 310 310 309 309 308 308 307 307 307 307 307 307 307 308 307 309 310 310 310 311 310 310 310 310 310 310 310 311 311 312 314 315 316 317 318 319 320 321 323
319 319 318 318 318 317 317 316 316 316 315 315 314 314 313 313 313 312 312 312 311 310 310 309 309 308 307 307 307 306 306 306 306 306 305 306 307 306 307 309 309 309 309 309 309 309 309 309 309 309 309 310 310 311 312 312 313 314 316 317 319 320
318 317 317 317 316 315 315 314 314 313 313 313 312 312 311 311 311 310 310 310 309 309 309 308 308 307 306 306 306 305 305 305 305 305 304 305 306 306 307 308 308 308 308 308 308 309 309 308 308 308 308 308 309 309 310 310 311 312 312 313 315 316
317 316 316 315 314 314 313 312 312 312 311 311 311 311 310 309 309 309 309 309 308 308 308 307 307 306 305 305 305 305 304 304 304 304 304 304 305 305 306 307 307 307 306 307 308 308 308 308 307 307 307 308 308 309 309 309 309 310 311 311 312 314
316 315 315 314 313 312 312 311 310 310 310 310 309 309 309 308 308 308 308 308 307 307 307 306 306 305 305 304 304 304 304 304 303 303 303 304 304 304 305 305 306 305 305 306 307 307 307 307 307 307 307 307 307 308 308 308 309 309 309 310 311 313